KC5DAQ-26 Weather Reports


time (UTC)temp
F
wind
direction
speed
knots
gust
knots
rain 1hr
in
rain 24hr
in
rain mn
in
humidity
%
barometer
mb
20240418171403 84 75 2.6 5.2 0.00 0.00 0.00 72 1018.2
20240418171303 84 147 1.7 5.2 0.00 0.00 0.00 72 1018.1
20240418171203 84 25 1.7 5.2 0.00 0.00 0.00 72 1018.2
20240418171102 84 109 1.7 5.2 0.00 0.00 0.00 72 1018.2
20240418171002 84 176 2.6 5.2 0.00 0.00 0.00 72 1018.1
20240418170903 84 111 1.7 5.2 0.00 0.00 0.00 71 1018.1
20240418170803 84 0 1.7 5.2 0.00 0.00 0.00 72 1018.1
20240418170702 84 76 1.7 5.2 0.00 0.00 0.00 73 1018.2
20240418170601 84 131 2.6 5.2 0.00 0.00 0.00 73 1018.2
20240418170504 84 285 2.6 5.2 0.00 0.00 0.00 73 1018.2
20240418170402 84 6 1.7 5.2 0.00 0.00 0.00 72 1018.1
20240418170301 84 104 2.6 5.2 0.00 0.00 0.00 73 1018.2
20240418170204 83 68 1.7 6.1 0.00 0.00 0.00 72 1018.1
20240418170102 84 58 2.6 6.1 0.00 0.00 0.00 73 1018.1
20240418170003 84 32 3.5 6.1 0.00 0.00 0.00 72 1018.2
20240418165902 84 65 2.6 6.1 0.00 0.00 0.00 73 1018.2
20240418165802 84 355 2.6 6.1 0.00 0.00 0.00 75 1018.4
20240418165701 83 90 2.6 6.1 0.00 0.00 0.00 73 1018.3
20240418165602 83 113 1.7 6.1 0.00 0.00 0.00 74 1018.3
20240418165503 83 38 1.7 6.1 0.00 0.00 0.00 73 1018.4
20240418165403 83 32 1.7 6.1 0.00 0.00 0.00 73 1018.4
20240418165301 83 172 2.6 6.1 0.00 0.00 0.00 72 1018.5
20240418165204 84 152 2.6 6.1 0.00 0.00 0.00 72 1018.4
20240418165103 84 25 2.6 6.1 0.00 0.00 0.00 73 1018.5
20240418165002 84 123 1.7 6.1 0.00 0.00 0.00 73 1018.4
20240418164902 83 121 2.6 6.1 0.00 0.00 0.00 74 1018.4
20240418164803 83 152 2.6 6.1 0.00 0.00 0.00 72 1018.5
20240418164702 84 0 2.6 6.1 0.00 0.00 0.00 73 1018.6
20240418164603 84 148 3.5 6.1 0.00 0.00 0.00 72 1018.5
20240418164503 84 185 2.6 5.2 0.00 0.00 0.00 74 1018.4
20240418164402 84 80 1.7 9.6 0.00 0.00 0.00 75 1018.5
20240418164301 83 69 1.7 9.6 0.00 0.00 0.00 74 1018.5
20240418164202 83 258 1.7 9.6 0.00 0.00 0.00 76 1018.6
20240418164103 83 145 0.9 9.6 0.00 0.00 0.00 76 1018.6
20240418164002 83 144 1.7 9.6 0.00 0.00 0.00 75 1018.6
20240418163902 83 117 1.7 9.6 0.00 0.00 0.00 75 1018.6
20240418163803 83 147 2.6 9.6 0.00 0.00 0.00 76 1018.6
20240418163702 83 243 1.7 9.6 0.00 0.00 0.00 76 1018.6
20240418163602 83 32 2.6 9.6 0.00 0.00 0.00 76 1018.5
20240418163503 83 61 3.5 9.6 0.00 0.00 0.00 75 1018.6
20240418163402 83 125 3.5 6.1 0.00 0.00 0.00 75 1018.5
20240418163302 83 180 4.3 8.7 0.00 0.00 0.00 75 1018.5
20240418163202 83 128 3.5 8.7 0.00 0.00 0.00 75 1018.7
20240418163102 83 58 2.6 8.7 0.00 0.00 0.00 77 1018.5
20240418163003 83 158 2.6 8.7 0.00 0.00 0.00 76 1018.5
20240418162903 83 154 1.7 8.7 0.00 0.00 0.00 76 1018.5
20240418162803 83 128 1.7 8.7 0.00 0.00 0.00 76 1018.4
20240418162702 83 65 1.7 8.7 0.00 0.00 0.00 76 1018.5
20240418162602 83 127 0.9 8.7 0.00 0.00 0.00 78 1018.5
20240418162501 83 47 1.7 8.7 0.00 0.00 0.00 77 1018.5
20240418162404 82 34 2.6 8.7 0.00 0.00 0.00 76 1018.5
20240418162301 82 111 1.7 4.3 0.00 0.00 0.00 77 1018.6
20240418162202 82 92 1.7 4.3 0.00 0.00 0.00 77 1018.5
20240418162103 82 11 1.7 4.3 0.00 0.00 0.00 78 1018.4
20240418162004 82 117 0.9 4.3 0.00 0.00 0.00 78 1018.5
20240418161902 82 79 0.9 4.3 0.00 0.00 0.00 79 1018.4
20240418161802 82 102 1.7 4.3 0.00 0.00 0.00 78 1018.4
20240418161703 82 78 1.7 4.3 0.00 0.00 0.00 78 1018.4
20240418161602 81 75 1.7 6.1 0.00 0.00 0.00 79 1018.5
20240418161502 81 44 1.7 6.1 0.00 0.00 0.00 80 1018.4
20240418161403 81 124 1.7 6.1 0.00 0.00 0.00 79 1018.4
20240418161302 81 298 0.9 6.1 0.00 0.00 0.00 78 1018.5
20240418161202 81 42 0.9 6.1 0.00 0.00 0.00 78 1018.5
20240418161103 81 162 1.7 6.1 0.00 0.00 0.00 78 1018.5
20240418161003 81 42 1.7 6.1 0.00 0.00 0.00 79 1018.6
20240418160902 81 152 2.6 6.1 0.00 0.00 0.00 78 1018.6
20240418160803 81 44 2.6 6.1 0.00 0.00 0.00 79 1018.6
20240418160702 81 87 1.7 6.1 0.00 0.00 0.00 80 1018.6
20240418160602 81 41 1.7 6.1 0.00 0.00 0.00 80 1018.6
20240418160502 81 103 1.7 6.1 0.00 0.00 0.00 80 1018.6
20240418160403 80 110 2.6 6.1 0.00 0.00 0.00 81 1018.5
20240418160302 80 117 2.6 6.1 0.00 0.00 0.00 81 1018.5
20240418160203 80 24 2.6 5.2 0.00 0.00 0.00 81 1018.4
20240418160102 80 117 1.7 5.2 0.00 0.00 0.00 81 1018.5
20240418160002 80 61 1.7 5.2 0.00 0.00 0.00 81 1018.6
20240418155902 80 68 2.6 5.2 0.00 0.00 0.00 80 1018.5
20240418155802 81 162 2.6 5.2 0.00 0.00 0.00 80 1018.4
20240418155703 81 185 2.6 5.2 0.00 0.00 0.00 80 1018.4
20240418155602 81 138 1.7 5.2 0.00 0.00 0.00 80 1018.4
20240418155503 81 149 1.7 5.2 0.00 0.00 0.00 82 1018.4
20240418155401 80 48 1.7 5.2 0.00 0.00 0.00 82 1018.4
20240418155303 80 73 1.7 5.2 0.00 0.00 0.00 81 1018.4
20240418155202 80 134 0.9 3.5 0.00 0.00 0.00 82 1018.4
20240418155102 80 134 0.9 3.5 0.00 0.00 0.00 82 1018.5
20240418155003 80 134 1.7 3.5 0.00 0.00 0.00 82 1018.6
20240418154902 80 137 0.9 3.5 0.00 0.00 0.00 82 1018.6
20240418154802 80 24 0.9 3.5 0.00 0.00 0.00 82 1018.6
20240418154703 80 1 0.9 5.2 0.00 0.00 0.00 82 1018.7
20240418154602 80 0 1.7 5.2 0.00 0.00 0.00 81 1018.6
20240418154502 80 54 1.7 5.2 0.00 0.00 0.00 82 1018.6
20240418154401 80 111 0.9 5.2 0.00 0.00 0.00 83 1018.6
20240418154303 80 110 1.7 5.2 0.00 0.00 0.00 82 1018.6
20240418154202 80 59 2.6 5.2 0.00 0.00 0.00 82 1018.6
20240418154102 80 54 2.6 5.2 0.00 0.00 0.00 82 1018.6
20240418154003 80 51 1.7 5.2 0.00 0.00 0.00 84 1018.6
20240418153903 80 80 2.6 5.2 0.00 0.00 0.00 83 1018.7
20240418153802 79 106 3.5 5.2 0.00 0.00 0.00 84 1018.6
20240418153702 79 202 3.5 5.2 0.00 0.00 0.00 84 1018.5
20240418153603 79 185 2.6 5.2 0.00 0.00 0.00 84 1018.6
20240418153502 79 100 1.7 5.2 0.00 0.00 0.00 84 1018.5
20240418153401 79 130 1.7 6.1 0.00 0.00 0.00 83 1018.6
20240418153303 79 109 2.6 6.1 0.00 0.00 0.00 84 1018.6
20240418153202 79 152 2.6 6.1 0.00 0.00 0.00 84 1018.5
20240418153102 79 28 2.6 6.1 0.00 0.00 0.00 84 1018.5
20240418153003 79 309 1.7 6.1 0.00 0.00 0.00 84 1018.5
20240418152903 79 147 1.7 6.1 0.00 0.00 0.00 84 1018.5
20240418152802 79 144 2.6 6.1 0.00 0.00 0.00 83 1018.5
20240418152702 80 190 3.5 6.1 0.00 0.00 0.00 83 1018.5
20240418152603 80 176 3.5 6.1 0.00 0.00 0.00 83 1018.4
20240418152502 80 173 2.6 6.1 0.00 0.00 0.00 83 1018.4
20240418152402 80 182 1.7 4.3 0.00 0.00 0.00 84 1018.5
20240418152303 79 63 1.7 4.3 0.00 0.00 0.00 84 1018.5
20240418152202 79 89 1.7 4.3 0.00 0.00 0.00 85 1018.4
20240418152101 79 134 1.7 4.3 0.00 0.00 0.00 85 1018.5
20240418152001 79 0 1.7 4.3 0.00 0.00 0.00 85 1018.4
20240418151903 79 124 1.7 4.3 0.00 0.00 0.00 85 1018.5
20240418151804 79 161 1.7 4.3 0.00 0.00 0.00 85 1018.6
20240418151702 79 158 1.7 5.2 0.00 0.00 0.00 85 1018.6
20240418151603 79 96 0.9 5.2 0.00 0.00 0.00 85 1018.6
20240418151503 79 100 0.9 5.2 0.00 0.00 0.00 85 1018.6
20240418151403 79 99 0.9 5.2 0.00 0.00 0.00 85 1018.6
20240418151301 79 99 1.7 5.2 0.00 0.00 0.00 85 1018.6
20240418151202 79 118 1.7 5.2 0.00 0.00 0.00 86 1018.6
20240418151102 79 44 0.9 5.2 0.00 0.00 0.00 86 1018.6
20240418151001 78 107 1.7 5.2 0.00 0.00 0.00 85 1018.6
20240418150903 79 109 1.7 5.2 0.00 0.00 0.00 85 1018.5
20240418150801 79 134 2.6 5.2 0.00 0.00 0.00 86 1018.5
20240418150702 79 120 1.7 4.3 0.00 0.00 0.00 87 1018.5
20240418150603 78 144 0.9 4.3 0.00 0.00 0.00 87 1018.4
20240418150505 78 144 0.9 4.3 0.00 0.00 0.00 88 1018.4
20240418150402 78 128 0.0 4.3 0.00 0.00 0.00 88 1018.4
20240418150301 78 120 0.0 4.3 0.00 0.00 0.00 89 1018.4
20240418150203 78 120 0.9 4.3 0.00 0.00 0.00 88 1018.3
20240418150104 77 114 0.9 4.3 0.00 0.00 0.00 89 1018.4
20240418150004 77 118 1.7 4.3 0.00 0.00 0.00 89 1018.3
20240418145904 77 118 1.7 4.3 0.00 0.00 0.00 88 1018.3
20240418145802 77 109 1.7 4.3 0.00 0.00 0.00 89 1018.3
20240418145718 77 116 0.9 4.3 0.00 0.00 0.00 89 1018.2
20240418145602 77 117 0.9 4.3 0.00 0.00 0.00 90 1018.2
20240418145505 77 82 0.9 4.3 0.00 0.00 0.00 90 1018.2
20240418145403 77 82 1.7 4.3 0.00 0.00 0.00 90 1018.2
20240418145302 77 102 1.7 4.3 0.00 0.00 0.00 90 1018.1
20240418145202 76 109 1.7 4.3 0.00 0.00 0.00 90 1018.2
20240418145103 76 189 2.6 4.3 0.00 0.00 0.00 90 1018.2
20240418145003 76 151 1.7 4.3 0.00 0.00 0.00 91 1018.2
20240418144901 76 186 0.9 3.5 0.00 0.00 0.00 91 1018.2
20240418144802 76 186 1.7 3.5 0.00 0.00 0.00 91 1018.2
20240418144703 76 121 1.7 3.5 0.00 0.00 0.00 91 1018.3
20240418144601 76 130 1.7 3.5 0.00 0.00 0.00 91 1018.3
20240418144504 76 144 1.7 3.5 0.00 0.00 0.00 91 1018.4
20240418144402 76 144 1.7 3.5 0.00 0.00 0.00 91 1018.5
20240418144302 76 125 0.9 3.5 0.00 0.00 0.00 91 1018.5
20240418144203 76 141 0.9 2.6 0.00 0.00 0.00 91 1018.5
20240418144102 76 135 1.7 2.6 0.00 0.00 0.00 91 1018.5
20240418144005 76 135 0.9 2.6 0.00 0.00 0.00 91 1018.4
20240418143903 76 128 0.9 2.6 0.00 0.00 0.00 91 1018.4
20240418143802 76 128 0.9 2.6 0.00 0.00 0.00 91 1018.4
20240418143702 76 128 1.7 2.6 0.00 0.00 0.00 91 1018.4
20240418143604 76 127 1.7 2.6 0.00 0.00 0.00 91 1018.4
20240418143504 76 128 0.9 1.7 0.00 0.00 0.00 91 1018.4
20240418143402 76 133 0.9 2.6 0.00 0.00 0.00 91 1018.4
20240418143304 76 134 0.9 4.3 0.00 0.00 0.00 91 1018.4
20240418143202 76 186 0.9 4.3 0.00 0.00 0.00 91 1018.4
20240418143102 76 188 0.9 4.3 0.00 0.00 0.00 91 1018.4
20240418143003 76 207 0.0 4.3 0.00 0.00 0.00 90 1018.4
20240418142901 76 207 0.9 4.3 0.00 0.00 0.00 90 1018.4
20240418142804 76 219 0.9 4.3 0.00 0.00 0.00 90 1018.3
20240418142701 76 233 0.0 4.3 0.00 0.00 0.00 90 1018.2
20240418142604 76 233 1.7 4.3 0.00 0.00 0.00 90 1018.3
20240418142503 76 286 1.7 4.3 0.00 0.00 0.00 90 1018.4
20240418142403 76 295 1.7 4.3 0.00 0.00 0.00 91 1018.3
20240418142303 76 188 1.7 4.3 0.00 0.00 0.00 91 1018.3
20240418142202 76 180 0.9 4.3 0.00 0.00 0.00 90 1018.2
20240418142102 76 159 0.9 4.3 0.00 0.00 0.00 90 1018.2
20240418142002 76 159 1.7 4.3 0.00 0.00 0.00 90 1018.1
20240418141903 76 220 0.9 4.3 0.00 0.00 0.00 90 1018.0
20240418141804 76 58 1.7 4.3 0.00 0.00 0.00 90 1017.9
20240418141705 76 55 1.7 4.3 0.00 0.00 0.00 91 1017.8
20240418141604 76 51 0.9 3.5 0.00 0.00 0.00 91 1017.8
20240418141502 76 51 1.7 3.5 0.00 0.00 0.00 91 1017.9
20240418141404 76 103 1.7 3.5 0.00 0.00 0.00 91 1018.0
20240418141304 76 135 1.7 3.5 0.00 0.00 0.00 91 1018.0
20240418141202 76 35 0.9 3.5 0.00 0.00 0.00 91 1018.0
20240418141102 76 133 0.9 2.6 0.00 0.00 0.00 91 1018.0
20240418141003 76 131 0.9 2.6 0.00 0.00 0.00 91 1018.0
20240418140903 76 69 1.7 2.6 0.00 0.00 0.00 91 1018.1
20240418140803 76 106 0.9 2.6 0.00 0.00 0.00 91 1018.2
20240418140702 76 140 0.9 2.6 0.00 0.00 0.00 91 1018.2
20240418140602 76 131 0.0 2.6 0.00 0.00 0.00 91 1018.2
20240418140504 76 131 0.9 2.6 0.00 0.00 0.00 91 1018.1
20240418140403 76 131 0.9 3.5 0.00 0.00 0.00 91 1018.2
20240418140303 76 180 0.0 3.5 0.00 0.00 0.00 91 1018.2
20240418140202 76 82 0.0 3.5 0.00 0.00 0.00 91 1018.2
20240418140102 76 82 0.0 3.5 0.00 0.00 0.00 91 1018.2
20240418140003 76 82 0.9 3.5 0.00 0.00 0.00 91 1018.2
20240418135904 76 66 0.0 3.5 0.00 0.00 0.00 91 1018.2
20240418135803 76 68 0.9 3.5 0.00 0.00 0.00 91 1018.3
20240418135703 76 68 1.7 3.5 0.00 0.00 0.00 91 1018.3
20240418135603 76 120 1.7 3.5 0.00 0.00 0.00 92 1018.2
20240418135501 76 130 1.7 3.5 0.00 0.00 0.00 92 1018.2
20240418135403 76 118 0.0 3.5 0.00 0.00 0.00 92 1018.2
20240418135303 76 76 0.0 3.5 0.00 0.00 0.00 92 1018.1
20240418135204 76 76 1.7 3.5 0.00 0.00 0.00 91 1018.1
20240418135103 76 73 1.7 3.5 0.00 0.00 0.00 92 1018.0
20240418135003 76 212 0.0 2.6 0.00 0.00 0.00 92 1018.0
20240418134901 76 159 0.9 2.6 0.00 0.00 0.00 92 1018.0
20240418134803 76 159 1.7 2.6 0.00 0.00 0.00 92 1018.1
20240418134703 76 276 1.7 2.6 0.00 0.00 0.00 92 1018.0
20240418134603 76 172 0.9 2.6 0.00 0.00 0.00 92 1018.0
20240418134504 76 171 0.9 2.6 0.00 0.00 0.00 92 1018.0
20240418134402 76 171 0.9 4.3 0.00 0.00 0.00 92 1018.0
20240418134303 76 159 0.9 4.3 0.00 0.00 0.00 92 1018.0
20240418134202 76 125 0.9 4.3 0.00 0.00 0.00 92 1018.1
20240418134102 76 116 0.0 4.3 0.00 0.00 0.00 92 1018.0
20240418134005 76 125 0.0 4.3 0.00 0.00 0.00 92 1018.1
20240418133902 76 127 0.0 4.3 0.00 0.00 0.00 92 1018.1
20240418133803 76 127 0.9 4.3 0.00 0.00 0.00 92 1018.0
20240418133703 76 127 1.7 4.3 0.00 0.00 0.00 92 1017.8
20240418133602 76 127 1.7 4.3 0.00 0.00 0.00 92 1017.8
20240418133503 76 124 1.7 4.3 0.00 0.00 0.00 92 1017.8
20240418133403 76 120 1.7 3.5 0.00 0.00 0.00 92 1017.8
20240418133304 76 123 0.9 3.5 0.00 0.00 0.00 92 1017.7
20240418133203 76 21 1.7 3.5 0.00 0.00 0.00 92 1017.8
20240418133104 76 21 1.7 3.5 0.00 0.00 0.00 92 1017.7
20240418133004 76 21 1.7 3.5 0.00 0.00 0.00 92 1017.7
20240418132903 76 21 1.7 3.5 0.00 0.00 0.00 92 1017.7
20240418132803 76 155 1.7 3.5 0.00 0.00 0.00 93 1017.6
20240418132702 76 176 0.9 3.5 0.00 0.00 0.00 93 1017.7
20240418132604 76 147 1.7 3.5 0.00 0.00 0.00 93 1017.7
20240418132504 76 66 0.9 3.5 0.00 0.00 0.00 93 1017.7
20240418132402 75 145 0.0 3.5 0.00 0.00 0.00 93 1017.7
20240418132303 75 145 0.0 3.5 0.00 0.00 0.00 93 1017.7
20240418132203 75 145 0.9 3.5 0.00 0.00 0.00 93 1017.7
20240418132103 75 145 0.9 3.5 0.00 0.00 0.00 93 1017.7
20240418132003 75 130 0.0 3.5 0.00 0.00 0.00 93 1017.7
20240418131902 75 130 0.0 3.5 0.00 0.00 0.00 93 1017.7
20240418131802 75 130 0.0 3.5 0.00 0.00 0.00 93 1017.7
20240418131703 75 130 1.7 3.5 0.00 0.00 0.00 93 1017.8
20240418131602 75 130 0.9 3.5 0.00 0.00 0.00 93 1017.8
20240418131501 75 169 0.0 2.6 0.00 0.00 0.00 93 1017.8
20240418131402 75 90 0.0 2.6 0.00 0.00 0.00 93 1017.7
20240418131304 75 92 0.0 2.6 0.00 0.00 0.00 93 1017.7
20240418131204 75 90 0.9 2.6 0.00 0.00 0.00 93 1017.7
20240418131104 75 102 0.9 2.6 0.00 0.00 0.00 93 1017.7
20240418131002 75 99 0.9 2.6 0.00 0.00 0.00 93 1017.8
20240418130903 75 96 0.9 1.7 0.00 0.00 0.00 93 1017.7
20240418130802 75 217 0.0 1.7 0.00 0.00 0.00 94 1017.8
20240418130704 75 217 0.0 1.7 0.00 0.00 0.00 94 1017.8
20240418130603 75 217 0.0 1.7 0.00 0.00 0.00 94 1017.8
20240418130503 75 217 0.0 1.7 0.00 0.00 0.00 94 1017.8
20240418130403 75 217 0.9 1.7 0.00 0.00 0.00 94 1017.8
20240418130304 75 219 0.0 1.7 0.00 0.00 0.00 94 1017.8
20240418130202 75 219 0.0 1.7 0.00 0.00 0.00 94 1017.8
20240418130101 75 219 0.9 1.7 0.00 0.00 0.00 94 1017.7
20240418130002 75 219 0.0 1.7 0.00 0.00 0.00 94 1017.7
20240418125904 75 220 0.0 1.7 0.00 0.00 0.00 94 1017.8
20240418125802 75 220 0.0 1.7 0.00 0.00 0.00 94 1017.7
20240418125703 75 220 0.0 1.7 0.00 0.00 0.00 94 1017.7
20240418125604 75 220 0.0 1.7 0.00 0.00 0.00 94 1017.7
20240418125501 75 220 0.0 1.7 0.00 0.00 0.00 94 1017.7
20240418125404 75 224 0.0 1.7 0.00 0.00 0.00 94 1017.7
20240418125302 75 154 0.0 1.7 0.00 0.00 0.00 94 1017.7
20240418125202 75 154 0.9 1.7 0.00 0.00 0.00 93 1017.7
20240418125103 75 106 0.0 1.7 0.00 0.00 0.00 93 1017.6
20240418125001 75 106 0.0 2.6 0.00 0.00 0.00 94 1017.5
20240418124903 75 106 0.0 2.6 0.00 0.00 0.00 94 1017.6
20240418124804 75 106 0.0 2.6 0.00 0.00 0.00 94 1017.5
20240418124702 75 104 0.0 2.6 0.00 0.00 0.00 93 1017.4
20240418124602 75 104 0.0 2.6 0.00 0.00 0.00 94 1017.5
20240418124502 75 104 0.0 3.5 0.00 0.00 0.00 94 1017.4
20240418124402 75 104 0.9 3.5 0.00 0.00 0.00 93 1017.4
20240418124302 75 131 0.9 3.5 0.00 0.00 0.00 94 1017.4
20240418124203 75 140 0.9 3.5 0.00 0.00 0.00 94 1017.5
20240418124103 75 140 0.9 3.5 0.00 0.00 0.00 94 1017.5
20240418124004 75 118 0.0 3.5 0.00 0.00 0.00 94 1017.5
20240418123903 75 118 0.0 3.5 0.00 0.00 0.00 94 1017.4
20240418123803 75 117 0.9 3.5 0.00 0.00 0.00 93 1017.5
20240418123702 75 117 1.7 3.5 0.00 0.00 0.00 93 1017.4
20240418123601 75 128 0.9 3.5 0.00 0.00 0.00 93 1017.5
20240418123503 75 168 0.0 3.5 0.00 0.00 0.00 93 1017.6
20240418123401 75 168 0.9 3.5 0.00 0.00 0.00 93 1017.6
20240418123303 75 127 0.9 3.5 0.00 0.00 0.00 93 1017.7
20240418123204 75 127 0.9 3.5 0.00 0.00 0.00 93 1017.5
20240418123102 75 128 0.0 3.5 0.00 0.00 0.00 93 1017.4
20240418123004 75 128 0.0 3.5 0.00 0.00 0.00 93 1017.5
20240418122902 75 128 0.9 3.5 0.00 0.00 0.00 93 1017.5
20240418122802 75 128 1.7 3.5 0.00 0.00 0.00 93 1017.4
20240418122702 75 131 0.9 3.5 0.00 0.00 0.00 93 1017.5
20240418122602 75 124 0.9 1.7 0.00 0.00 0.00 93 1017.5
20240418122505 75 124 0.9 1.7 0.00 0.00 0.00 93 1017.4
20240418122402 75 124 0.0 1.7 0.00 0.00 0.00 93 1017.5
20240418122302 75 125 0.0 1.7 0.00 0.00 0.00 93 1017.5
20240418122201 75 125 0.0 2.6 0.00 0.00 0.00 93 1017.5
20240418122103 75 125 0.9 2.6 0.00 0.00 0.00 93 1017.4
20240418122004 75 125 0.9 2.6 0.00 0.00 0.00 93 1017.5
20240418121902 75 134 0.0 2.6 0.00 0.00 0.00 93 1017.4
20240418121802 75 134 0.0 2.6 0.00 0.00 0.00 93 1017.4
20240418121703 75 134 0.9 2.6 0.00 0.00 0.00 93 1017.4
20240418121602 75 134 0.0 3.5 0.00 0.00 0.00 93 1017.4
20240418121503 75 134 0.0 3.5 0.00 0.00 0.00 93 1017.3
20240418121403 75 134 0.9 3.5 0.00 0.00 0.00 93 1017.4
20240418121302 75 134 0.9 3.5 0.00 0.00 0.00 93 1017.3
20240418121202 75 162 0.9 5.2 0.00 0.00 0.00 93 1017.3
20240418121103 75 313 0.9 5.2 0.00 0.00 0.00 93 1017.3
20240418121005 75 290 0.9 5.2 0.00 0.00 0.00 93 1017.3
20240418120902 75 254 0.9 5.2 0.00 0.00 0.00 93 1017.3
20240418120803 75 161 1.7 5.2 0.00 0.00 0.00 93 1017.3
20240418120701 75 162 1.7 5.2 0.00 0.00 0.00 93 1017.3
20240418120603 75 134 0.9 5.2 0.00 0.00 0.00 93 1017.3
20240418120502 75 142 1.7 5.2 0.00 0.00 0.00 93 1017.3
20240418120402 75 89 1.7 5.2 0.00 0.00 0.00 93 1017.2
20240418120302 75 82 1.7 5.2 0.00 0.00 0.00 93 1017.3
20240418120202 75 133 1.7 3.5 0.00 0.00 0.00 93 1017.2
20240418120104 75 138 1.7 3.5 0.00 0.00 0.00 93 1017.2
20240418120004 75 147 0.9 1.7 0.00 0.00 0.00 93 1017.2
20240418115903 75 104 0.9 1.7 0.00 0.00 0.00 93 1017.2
20240418115804 75 104 0.9 1.7 0.00 0.00 0.00 93 1017.2
20240418115702 75 188 0.9 2.6 0.00 0.00 0.00 93 1017.2
20240418115603 75 210 0.0 2.6 0.00 0.00 0.00 93 1017.2
20240418115503 75 219 0.0 2.6 0.00 0.00 0.00 93 1017.2
20240418115403 75 220 0.0 2.6 0.00 0.00 0.00 93 1017.2
20240418115302 75 220 0.9 2.6 0.00 0.00 0.00 93 1017.3
20240418115204 75 168 0.9 2.6 0.00 0.00 0.00 93 1017.4
20240418115104 75 168 0.0 2.6 0.00 0.00 0.00 93 1017.3
20240418115003 75 179 0.0 2.6 0.00 0.00 0.00 93 1017.4
20240418114902 75 179 0.9 2.6 0.00 0.00 0.00 93 1017.3
20240418114802 75 188 1.7 2.6 0.00 0.00 0.00 93 1017.3
20240418114703 75 244 0.9 2.6 0.00 0.00 0.00 93 1017.3
20240418114603 75 247 0.9 2.6 0.00 0.00 0.00 93 1017.2
20240418114503 0 0.0 2.6 0.00 0.00 0.00 1017.2
20240418114403 75 114 1.7 2.6 0.00 0.00 0.00 93 1017.2
20240418114303 75 114 1.7 2.6 0.00 0.00 0.00 93 1017.2
20240418114203 75 114 1.7 2.6 0.00 0.00 0.00 93 1017.2
20240418114103 75 114 1.7 2.6 0.00 0.00 0.00 93 1017.2
20240418114002 75 114 1.7 2.6 0.00 0.00 0.00 93 1017.2
20240418113837 75 111 0.9 2.6 0.00 0.00 0.00 93 1017.1
20240418113734 75 103 0.9 2.6 0.00 0.00 0.00 93 1017.1
20240418113634 75 121 0.9 2.6 0.00 0.00 0.00 93 1017.1
20240418113523 75 121 0.9 3.5 0.00 0.00 0.00 93 1017.1
20240418113423 75 213 0.9 3.5 0.00 0.00 0.00 93 1017.2
20240418113322 75 14 0.9 3.5 0.00 0.00 0.00 93 1017.1
20240418113224 75 127 0.9 3.5 0.00 0.00 0.00 93 1017.1
20240418113123 75 127 0.9 3.5 0.00 0.00 0.00 93 1017.2
20240418113024 75 137 0.0 3.5 0.00 0.00 0.00 93 1017.2
20240418112922 75 138 0.9 3.5 0.00 0.00 0.00 93 1017.2
20240418112822 75 138 0.9 3.5 0.00 0.00 0.00 93 1017.2
20240418112722 75 138 0.9 3.5 0.00 0.00 0.00 93 1017.2
20240418112623 75 125 0.9 3.5 0.00 0.00 0.00 93 1017.1
20240418112523 75 113 0.9 3.5 0.00 0.00 0.00 93 1017.2
20240418112422 75 179 0.9 3.5 0.00 0.00 0.00 93 1017.1
20240418112323 75 355 0.9 3.5 0.00 0.00 0.00 93 1017.2
20240418112222 75 128 0.9 3.5 0.00 0.00 0.00 93 1017.1
20240418112122 75 155 0.9 2.6 0.00 0.00 0.00 93 1017.1
20240418112024 75 155 0.9 2.6 0.00 0.00 0.00 93 1017.1
20240418111923 75 152 0.0 2.6 0.00 0.00 0.00 93 1017.1
20240418111823 75 157 0.0 2.6 0.00 0.00 0.00 93 1017.2
20240418111724 75 157 0.9 2.6 0.00 0.00 0.00 93 1017.1
20240418111622 75 157 0.9 2.6 0.00 0.00 0.00 93 1017.1
20240418111522 75 158 0.0 2.6 0.00 0.00 0.00 93 1017.1
20240418111422 75 158 0.9 2.6 0.00 0.00 0.00 93 1017.0
20240418111323 75 158 0.9 2.6 0.00 0.00 0.00 93 1017.1
20240418111223 75 199 0.0 1.7 0.00 0.00 0.00 93 1017.0
20240418111123 75 199 0.0 1.7 0.00 0.00 0.00 93 1017.0
20240418111023 75 199 0.9 1.7 0.00 0.00 0.00 93 1017.0
20240418110923 75 202 0.9 1.7 0.00 0.00 0.00 93 1017.0
20240418110824 75 171 0.9 1.7 0.00 0.00 0.00 93 1017.0
20240418110722 75 178 0.0 1.7 0.00 0.00 0.00 93 1016.9
20240418110624 75 169 0.0 1.7 0.00 0.00 0.00 93 1016.9
20240418110522 75 169 0.0 1.7 0.00 0.00 0.00 93 1016.8
20240418110422 75 169 0.0 1.7 0.00 0.00 0.00 93 1016.8
20240418110324 75 169 0.0 1.7 0.00 0.00 0.00 93 1016.7
20240418110223 75 169 0.0 1.7 0.00 0.00 0.00 93 1016.8
20240418110122 75 169 0.0 1.7 0.00 0.00 0.00 93 1016.7
20240418110021 75 169 0.0 1.7 0.00 0.00 0.00 93 1016.8
20240418105922 75 169 0.9 1.7 0.00 0.00 0.00 93 1016.9
20240418105822 75 169 0.0 1.7 0.00 0.00 0.00 93 1016.8
20240418105721 75 183 0.0 1.7 0.00 0.00 0.00 93 1016.9
20240418105622 75 183 0.9 1.7 0.00 0.00 0.00 93 1016.9
20240418105522 75 183 0.0 1.7 0.00 0.00 0.00 93 1016.8
20240418105423 75 183 0.0 1.7 0.00 0.00 0.00 93 1016.9
20240418105323 75 183 0.0 1.7 0.00 0.00 0.00 93 1016.9
20240418105223 75 183 0.0 1.7 0.00 0.00 0.00 93 1016.9
20240418105122 75 183 0.0 1.7 0.00 0.00 0.00 93 1016.8
20240418105021 75 183 0.0 1.7 0.00 0.00 0.00 93 1016.9
20240418104921 75 183 0.0 2.6 0.00 0.00 0.00 93 1016.9
20240418104822 75 183 0.9 2.6 0.00 0.00 0.00 93 1016.9
20240418104722 75 183 0.9 2.6 0.00 0.00 0.00 93 1016.9
20240418104621 75 234 0.0 2.6 0.00 0.00 0.00 93 1016.8
20240418104523 75 234 0.9 2.6 0.00 0.00 0.00 93 1016.9
20240418104422 75 234 0.9 2.6 0.00 0.00 0.00 93 1016.8
20240418104322 75 104 0.9 2.6 0.00 0.00 0.00 93 1016.7
20240418104222 75 102 0.9 2.6 0.00 0.00 0.00 93 1016.7
20240418104122 75 99 0.9 2.6 0.00 0.00 0.00 93 1016.6
20240418104022 75 99 0.9 2.6 0.00 0.00 0.00 93 1016.6
20240418103922 75 147 0.0 2.6 0.00 0.00 0.00 93 1016.5
20240418103821 75 147 0.0 2.6 0.00 0.00 0.00 93 1016.6
20240418103721 75 147 0.9 2.6 0.00 0.00 0.00 93 1016.6
20240418103622 75 147 1.7 2.6 0.00 0.00 0.00 93 1016.6
20240418103523 75 145 0.9 2.6 0.00 0.00 0.00 93 1016.6
20240418103421 75 312 0.9 1.7 0.00 0.00 0.00 93 1016.6
20240418103321 75 313 0.9 1.7 0.00 0.00 0.00 93 1016.5
20240418103222 75 310 0.0 1.7 0.00 0.00 0.00 93 1016.6
20240418103122 75 305 0.0 1.7 0.00 0.00 0.00 93 1016.8
20240418103021 75 305 0.9 1.7 0.00 0.00 0.00 93 1016.7
20240418102922 75 305 0.9 1.7 0.00 0.00 0.00 93 1016.7
20240418102822 75 300 0.0 1.7 0.00 0.00 0.00 93 1016.7
20240418102722 75 293 0.0 2.6 0.00 0.00 0.00 93 1016.8
20240418102622 75 293 0.0 2.6 0.00 0.00 0.00 93 1016.8
20240418102522 75 293 0.0 2.6 0.00 0.00 0.00 93 1016.8
20240418102421 75 293 0.9 2.6 0.00 0.00 0.00 93 1016.8
20240418102321 75 123 0.9 2.6 0.00 0.00 0.00 93 1016.8
20240418102222 75 123 0.0 2.6 0.00 0.00 0.00 93 1016.9
20240418102123 75 123 0.0 2.6 0.00 0.00 0.00 93 1016.8
20240418102022 75 123 0.0 2.6 0.00 0.00 0.00 93 1016.7
20240418101922 75 123 0.9 2.6 0.00 0.00 0.00 93 1016.7
20240418101823 75 123 0.9 2.6 0.00 0.00 0.00 93 1016.7
20240418101726 75 131 0.9 2.6 0.00 0.00 0.00 93 1016.7
20240418101622 75 0 0.0 1.7 0.00 0.00 0.00 93 1016.7
20240418101523 75 0 0.9 1.7 0.00 0.00 0.00 93 1016.7
20240418101421 75 0 0.9 1.7 0.00 0.00 0.00 93 1016.7
20240418101320 75 0 0.9 1.7 0.00 0.00 0.00 94 1016.7
20240418101222 75 255 0.0 2.6 0.00 0.00 0.00 94 1016.7
20240418101121 75 262 0.0 2.6 0.00 0.00 0.00 94 1016.5
20240418101022 75 258 0.0 2.6 0.00 0.00 0.00 93 1016.5
20240418100922 75 258 0.9 3.5 0.00 0.00 0.00 93 1016.4
20240418100820 75 261 0.9 3.5 0.00 0.00 0.00 93 1016.3
20240418100721 75 114 0.0 3.5 0.00 0.00 0.00 93 1016.3
20240418100620 75 114 0.0 3.5 0.00 0.00 0.00 93 1016.2
20240418100521 75 118 0.0 3.5 0.00 0.00 0.00 93 1016.2
20240418100421 75 118 0.9 3.5 0.00 0.00 0.00 93 1016.2
20240418100320 75 118 0.9 3.5 0.00 0.00 0.00 93 1016.2
20240418100221 75 76 0.9 3.5 0.00 0.00 0.00 93 1016.2
20240418100121 75 76 1.7 3.5 0.00 0.00 0.00 93 1016.2
20240418100023 75 165 1.7 3.5 0.00 0.00 0.00 93 1016.2
20240418095921 75 113 1.7 3.5 0.00 0.00 0.00 93 1016.2
20240418095820 75 113 0.9 3.5 0.00 0.00 0.00 94 1016.3
20240418095720 75 237 0.9 3.5 0.00 0.00 0.00 93 1016.3
20240418095621 75 237 0.9 3.5 0.00 0.00 0.00 93 1016.3
20240418095520 75 354 0.9 2.6 0.00 0.00 0.00 93 1016.4
20240418095420 75 354 0.9 2.6 0.00 0.00 0.00 93 1016.4
20240418095322 75 104 0.9 2.6 0.00 0.00 0.00 93 1016.4
20240418095220 75 47 0.9 2.6 0.00 0.00 0.00 93 1016.4
20240418095120 75 66 1.7 2.6 0.00 0.00 0.00 93 1016.4
20240418095020 75 65 1.7 2.6 0.00 0.00 0.00 93 1016.4
20240418094920 75 133 0.9 2.6 0.00 0.00 0.00 93 1016.4
20240418094821 75 97 0.9 2.6 0.00 0.00 0.00 93 1016.4
20240418094721 75 96 0.9 3.5 0.00 0.00 0.00 93 1016.3
20240418094621 75 96 0.9 3.5 0.00 0.00 0.00 93 1016.4
20240418094520 75 116 0.0 3.5 0.00 0.00 0.00 93 1016.4
20240418094419 75 0 0.0 3.5 0.00 0.00 0.00 93 1016.5
20240418094321 75 0 0.9 3.5 0.00 0.00 0.00 93 1016.4
20240418094220 75 0 0.9 3.5 0.00 0.00 0.00 93 1016.5
20240418094120 75 107 0.9 3.5 0.00 0.00 0.00 93 1016.5
20240418094020 75 110 0.9 4.3 0.00 0.00 0.00 93 1016.4
20240418093919 75 186 1.7 4.3 0.00 0.00 0.00 93 1016.4
20240418093820 75 188 1.7 5.2 0.00 0.00 0.00 94 1016.3
20240418093721 75 347 0.0 5.2 0.00 0.00 0.00 93 1016.3
20240418093622 75 219 0.0 5.2 0.00 0.00 0.00 93 1016.3
20240418093520 75 258 0.9 5.2 0.00 0.00 0.00 93 1016.3
20240418093420 75 190 0.9 5.2 0.00 0.00 0.00 93 1016.3
20240418093320 75 192 0.9 5.2 0.00 0.00 0.00 93 1016.2
20240418093221 75 192 0.9 5.2 0.00 0.00 0.00 93 1016.1
20240418093120 75 128 0.9 5.2 0.00 0.00 0.00 93 1016.1
20240418093020 75 48 1.7 5.2 0.00 0.00 0.00 93 1016.1
20240418092922 75 79 1.7 5.2 0.00 0.00 0.00 93 1016.2
20240418092820 75 137 1.7 4.3 0.00 0.00 0.00 93 1016.0
20240418092720 75 89 1.7 4.3 0.00 0.00 0.00 93 1016.0
20240418092620 75 123 0.9 4.3 0.00 0.00 0.00 93 1016.0
20240418092521 75 124 0.9 4.3 0.00 0.00 0.00 93 1016.0
20240418092421 75 124 1.7 5.2 0.00 0.00 0.00 93 1016.0
20240418092318 75 124 1.7 5.2 0.00 0.00 0.00 93 1016.0
20240418092219 75 0 0.9 5.2 0.00 0.00 0.00 93 1016.0
20240418092119 75 0 0.9 5.2 0.00 0.00 0.00 93 1016.1
20240418092019 75 307 1.7 5.2 0.00 0.00 0.00 93 1016.1
20240418091920 75 255 1.7 5.2 0.00 0.00 0.00 93 1016.1
20240418091821 75 142 1.7 5.2 0.00 0.00 0.00 93 1016.1
20240418091720 75 123 1.7 5.2 0.00 0.00 0.00 93 1016.1
20240418091619 75 123 2.6 6.1 0.00 0.00 0.00 93 1016.1
20240418091520 75 144 2.6 6.1 0.00 0.00 0.00 93 1016.1
20240418091420 75 354 0.9 6.1 0.00 0.00 0.00 93 1016.2
20240418091319 75 54 1.7 6.1 0.00 0.00 0.00 93 1016.3
20240418091219 75 54 1.7 6.1 0.00 0.00 0.00 93 1016.2
20240418091120 75 147 1.7 6.1 0.00 0.00 0.00 93 1016.3
20240418091019 75 131 0.9 6.1 0.00 0.00 0.00 93 1016.3
20240418090920 75 135 1.7 6.1 0.00 0.00 0.00 93 1016.3
20240418090821 75 312 2.6 6.1 0.00 0.00 0.00 93 1016.3
20240418090720 75 147 2.6 6.1 0.00 0.00 0.00 93 1016.3
20240418090619 75 355 2.6 5.2 0.00 0.00 0.00 93 1016.2
20240418090519 75 123 2.6 5.2 0.00 0.00 0.00 93 1016.3
20240418090422 75 138 1.7 5.2 0.00 0.00 0.00 93 1016.3
20240418090319 75 343 1.7 4.3 0.00 0.00 0.00 93 1016.2
20240418090219 75 258 1.7 4.3 0.00 0.00 0.00 93 1016.3
20240418090120 75 13 1.7 4.3 0.00 0.00 0.00 93 1016.3
20240418090020 75 35 0.9 4.3 0.00 0.00 0.00 93 1016.4
20240418085919 75 110 1.7 4.3 0.00 0.00 0.00 93 1016.4
20240418085819 75 130 1.7 4.3 0.00 0.00 0.00 93 1016.4
20240418085721 75 138 1.7 6.1 0.00 0.00 0.00 93 1016.4
20240418085619 75 157 1.7 6.1 0.00 0.00 0.00 93 1016.4
20240418085518 75 111 1.7 6.1 0.00 0.00 0.00 93 1016.4
20240418085421 75 124 1.7 6.1 0.00 0.00 0.00 94 1016.4
20240418085319 75 203 0.9 6.1 0.00 0.00 0.00 94 1016.3
20240418085220 75 207 1.7 8.7 0.00 0.00 0.00 94 1016.4
20240418085120 75 261 1.7 8.7 0.00 0.00 0.00 94 1016.3
20240418085019 75 319 0.9 8.7 0.00 0.00 0.00 94 1016.4
20240418084918 75 269 1.7 8.7 0.00 0.00 0.00 94 1016.3
20240418084819 75 200 2.6 8.7 0.00 0.00 0.00 94 1016.3
20240418084719 75 55 1.7 8.7 0.00 0.00 0.00 94 1016.3
20240418084618 75 107 0.9 8.7 0.00 0.00 0.00 94 1016.3
20240418084519 75 107 1.7 8.7 0.00 0.00 0.00 94 1016.2
20240418084420 75 49 2.6 8.7 0.00 0.00 0.00 94 1016.2
20240418084319 75 123 2.6 8.7 0.00 0.00 0.00 94 1016.2
20240418084219 75 30 1.7 4.3 0.00 0.00 0.00 94 1016.1
20240418084118 75 63 1.7 4.3 0.00 0.00 0.00 94 1016.1
20240418084018 75 281 1.7 4.3 0.00 0.00 0.00 94 1016.1
20240418083918 75 206 1.7 4.3 0.00 0.00 0.00 94 1016.1
20240418083819 75 121 0.9 4.3 0.00 0.00 0.00 94 1016.0
20240418083718 75 121 0.9 4.3 0.00 0.00 0.00 94 1016.1
20240418083621 75 121 1.7 4.3 0.00 0.00 0.00 94 1016.0
20240418083519 75 121 1.7 4.3 0.00 0.00 0.00 94 1016.0
20240418083418 75 42 1.7 4.3 0.00 0.00 0.00 94 1016.0
20240418083319 75 59 0.9 4.3 0.00 0.00 0.00 94 1016.1
20240418083218 75 61 0.9 4.3 0.00 0.00 0.00 94 1016.0
20240418083118 75 347 1.7 4.3 0.00 0.00 0.00 94 1016.1
20240418083019 75 134 1.7 4.3 0.00 0.00 0.00 94 1016.1
20240418082918 75 103 1.7 5.2 0.00 0.00 0.00 94 1015.9
20240418082818 75 186 1.7 5.2 0.00 0.00 0.00 94 1016.1
20240418082718 75 176 1.7 5.2 0.00 0.00 0.00 94 1016.1
20240418082619 75 117 1.7 5.2 0.00 0.00 0.00 94 1016.1
20240418082519 75 147 1.7 5.2 0.00 0.00 0.00 94 1016.1
20240418082420 75 117 1.7 5.2 0.00 0.00 0.00 94 1016.1
20240418082319 75 104 0.9 5.2 0.00 0.00 0.00 94 1016.2
20240418082218 75 114 0.9 5.2 0.00 0.00 0.00 94 1016.1
20240418082118 75 110 0.9 5.2 0.00 0.00 0.00 94 1016.2
20240418082018 75 117 1.7 5.2 0.00 0.00 0.00 94 1016.1
20240418081919 75 133 0.9 2.6 0.00 0.00 0.00 94 1016.1
20240418081818 75 49 0.0 2.6 0.00 0.00 0.00 94 1016.0
20240418081718 75 127 0.0 2.6 0.00 0.00 0.00 94 1016.2
20240418081620 75 127 0.9 2.6 0.00 0.00 0.00 94 1016.2
20240418081520 75 125 0.9 2.6 0.00 0.00 0.00 94 1016.1
20240418081419 75 137 0.9 2.6 0.00 0.00 0.00 94 1016.1
20240418081318 75 137 0.0 1.7 0.00 0.00 0.00 94 1016.1
20240418081219 75 137 0.0 1.7 0.00 0.00 0.00 94 1016.2
20240418081120 75 137 0.0 1.7 0.00 0.00 0.00 94 1016.2
20240418081018 75 137 0.0 1.7 0.00 0.00 0.00 94 1016.2
20240418080919 75 102 0.9 1.7 0.00 0.00 0.00 94 1016.3
20240418080818 75 102 0.0 1.7 0.00 0.00 0.00 94 1016.2
20240418080719 75 23 0.0 1.7 0.00 0.00 0.00 94 1016.3
20240418080619 75 23 0.0 1.7 0.00 0.00 0.00 94 1016.3
20240418080519 75 23 0.9 1.7 0.00 0.00 0.00 94 1016.3
20240418080418 75 0 0.0 1.7 0.00 0.00 0.00 94 1016.4
20240418080319 75 0 0.0 2.6 0.00 0.00 0.00 94 1016.3
20240418080219 75 0 0.0 4.3 0.00 0.00 0.00 94 1016.3
20240418080118 75 0 0.9 4.3 0.00 0.00 0.00 94 1016.2
20240418080018 75 0 0.0 4.3 0.00 0.00 0.00 94 1016.2
20240418075919 75 0 0.0 4.3 0.00 0.00 0.00 94 1016.3
20240418075817 75 0 0.9 4.3 0.00 0.00 0.00 94 1016.2
20240418075717 75 0 0.9 4.3 0.00 0.00 0.00 94 1016.2
20240418075618 75 0 0.0 4.3 0.00 0.00 0.00 94 1016.2
20240418075518 75 197 0.9 4.3 0.00 0.00 0.00 94 1016.2
20240418075418 75 197 0.9 4.3 0.00 0.00 0.00 94 1016.2
20240418075317 75 199 0.9 4.3 0.00 0.00 0.00 94 1016.1
20240418075217 75 144 0.9 3.5 0.00 0.00 0.00 94 1016.1
20240418075118 74 209 0.9 3.5 0.00 0.00 0.00 94 1016.2
20240418075017 74 144 0.0 5.2 0.00 0.00 0.00 94 1016.2
20240418074917 74 144 0.0 5.2 0.00 0.00 0.00 94 1016.2
20240418074818 74 144 0.9 5.2 0.00 0.00 0.00 94 1016.2
20240418074717 74 144 0.9 5.2 0.00 0.00 0.00 94 1016.2
20240418074618 74 144 0.9 5.2 0.00 0.00 0.00 94 1016.2
20240418074517 74 109 0.9 5.2 0.00 0.00 0.00 94 1016.2
20240418074420 74 110 0.9 5.2 0.00 0.00 0.00 94 1016.2
20240418074317 74 127 0.9 5.2 0.00 0.00 0.00 94 1016.1
20240418074218 74 127 1.7 5.2 0.00 0.00 0.00 94 1016.1
20240418074118 74 137 1.7 5.2 0.00 0.00 0.00 94 1016.1
20240418074017 74 127 0.9 4.3 0.00 0.00 0.00 94 1016.2
20240418073917 74 106 0.0 4.3 0.00 0.00 0.00 94 1016.1
20240418073817 74 106 0.9 4.3 0.00 0.00 0.00 94 1016.1
20240418073717 74 118 0.9 4.3 0.00 0.00 0.00 94 1016.2
20240418073617 74 116 0.9 4.3 0.00 0.00 0.00 94 1016.2
20240418073517 74 116 0.9 4.3 0.00 0.00 0.00 94 1016.2
20240418073418 74 97 0.0 2.6 0.00 0.00 0.00 94 1016.2
20240418073317 74 97 0.0 2.6 0.00 0.00 0.00 94 1016.1
20240418073217 74 97 0.0 2.6 0.00 0.00 0.00 94 1016.2
20240418073118 74 97 0.9 2.6 0.00 0.00 0.00 94 1016.2
20240418073018 74 96 0.9 2.6 0.00 0.00 0.00 94 1016.2
20240418072917 74 123 0.9 2.6 0.00 0.00 0.00 94 1016.2
20240418072817 74 121 0.9 2.6 0.00 0.00 0.00 94 1016.3
20240418072719 74 121 0.9 2.6 0.00 0.00 0.00 94 1016.3
20240418072617 74 145 0.9 2.6 0.00 0.00 0.00 94 1016.3
20240418072517 74 140 0.0 2.6 0.00 0.00 0.00 94 1016.4
20240418072418 74 140 0.9 2.6 0.00 0.00 0.00 94 1016.3
20240418072318 74 140 0.9 2.6 0.00 0.00 0.00 94 1016.4
20240418072217 74 133 0.0 2.6 0.00 0.00 0.00 94 1016.4
20240418072116 74 149 0.9 2.6 0.00 0.00 0.00 94 1016.5
20240418072018 74 149 0.9 2.6 0.00 0.00 0.00 94 1016.4
20240418071917 74 155 0.0 1.7 0.00 0.00 0.00 94 1016.3
20240418071817 74 120 0.0 1.7 0.00 0.00 0.00 94 1016.3
20240418071719 74 123 0.0 3.5 0.00 0.00 0.00 94 1016.4
20240418071616 74 123 0.9 3.5 0.00 0.00 0.00 94 1016.4
20240418071517 74 123 0.9 3.5 0.00 0.00 0.00 94 1016.4
20240418071418 74 121 0.9 3.5 0.00 0.00 0.00 94 1016.4
20240418071318 74 121 0.0 3.5 0.00 0.00 0.00 94 1016.5
20240418071217 74 121 0.0 3.5 0.00 0.00 0.00 94 1016.4
20240418071117 74 121 0.9 3.5 0.00 0.00 0.00 94 1016.4
20240418071018 74 121 0.9 3.5 0.00 0.00 0.00 94 1016.5
20240418070916 74 140 0.9 3.5 0.00 0.00 0.00 94 1016.5
20240418070816 74 140 0.9 3.5 0.00 0.00 0.00 94 1016.5
20240418070717 74 79 0.0 2.6 0.00 0.00 0.00 94 1016.5
20240418070618 74 79 0.0 2.6 0.00 0.00 0.00 94 1016.6
20240418070516 74 79 0.9 2.6 0.00 0.00 0.00 94 1016.6
20240418070416 74 147 0.0 2.6 0.00 0.00 0.00 94 1016.7
20240418070318 74 147 0.0 2.6 0.00 0.00 0.00 94 1016.7
20240418070218 74 147 0.0 2.6 0.00 0.00 0.00 94 1016.7
20240418070118 74 147 0.9 2.6 0.00 0.00 0.00 94 1016.7
20240418070016 74 147 0.9 2.6 0.00 0.00 0.00 94 1016.7
20240418065917 74 131 0.9 1.7 0.00 0.00 0.00 94 1016.8
20240418065816 74 131 0.9 1.7 0.00 0.00 0.00 94 1016.9
20240418065716 74 130 0.0 1.7 0.00 0.00 0.00 94 1016.9
20240418065618 74 130 0.0 1.7 0.00 0.00 0.00 94 1016.9
20240418065517 74 142 0.0 1.7 0.00 0.00 0.00 93 1016.9
20240418065416 74 142 0.9 1.7 0.00 0.00 0.00 94 1016.9
20240418065316 74 142 0.9 1.7 0.00 0.00 0.00 94 1016.9
20240418065216 74 164 0.0 1.7 0.00 0.00 0.00 94 1016.9
20240418065118 74 164 0.0 1.7 0.00 0.00 0.00 94 1016.9
20240418065016 74 157 0.0 1.7 0.00 0.00 0.00 94 1016.9
20240418064917 74 159 0.0 1.7 0.00 0.00 0.00 94 1016.9
20240418064816 74 159 0.0 1.7 0.00 0.00 0.00 94 1016.8
20240418064716 74 159 0.0 1.7 0.00 0.00 0.00 94 1016.8
20240418064617 74 87 0.0 1.7 0.00 0.00 0.00 93 1016.8
20240418064517 74 87 0.9 1.7 0.00 0.00 0.00 93 1016.8
20240418064416 74 87 0.0 1.7 0.00 0.00 0.00 93 1016.8
20240418064316 74 83 0.0 1.7 0.00 0.00 0.00 93 1016.9
20240418064216 74 83 0.0 1.7 0.00 0.00 0.00 93 1016.9
20240418064116 74 83 0.9 1.7 0.00 0.00 0.00 93 1017.0
20240418064016 74 83 0.9 1.7 0.00 0.00 0.00 93 1016.9
20240418063918 74 83 0.0 1.7 0.00 0.00 0.00 93 1016.9
20240418063816 74 83 0.0 1.7 0.00 0.00 0.00 93 1016.9
20240418063716 74 83 0.9 1.7 0.00 0.00 0.00 93 1017.0
20240418063615 74 83 0.9 1.7 0.00 0.00 0.00 93 1016.9
20240418063517 74 83 0.9 1.7 0.00 0.00 0.00 93 1017.0
20240418063416 75 78 0.0 1.7 0.00 0.00 0.00 93 1017.0
20240418063315 74 78 0.0 2.6 0.00 0.00 0.00 93 1017.0
20240418063217 75 78 0.0 5.2 0.00 0.00 0.00 93 1017.1
20240418063116 75 76 0.9 5.2 0.00 0.00 0.00 93 1017.0
20240418063015 75 78 0.9 5.2 0.00 0.00 0.00 93 1017.0
20240418062916 74 78 0.9 5.2 0.00 0.00 0.00 93 1017.1
20240418062816 75 78 0.0 5.2 0.00 0.00 0.00 93 1017.0
20240418062716 75 78 0.0 5.2 0.00 0.00 0.00 93 1017.1
20240418062614 75 78 0.9 5.2 0.00 0.00 0.00 93 1017.0
20240418062515 75 78 0.9 5.2 0.00 0.00 0.00 93 1017.0
20240418062416 74 78 1.7 5.2 0.00 0.00 0.00 93 1017.1
20240418062315 75 75 1.7 5.2 0.00 0.00 0.00 93 1017.1
20240418062215 75 111 0.9 3.5 0.00 0.00 0.00 93 1017.2
20240418062116 75 79 0.9 2.6 0.00 0.00 0.00 93 1017.1
20240418062016 75 79 0.9 2.6 0.00 0.00 0.00 93 1017.1
20240418061914 75 79 0.0 2.6 0.00 0.00 0.00 93 1017.1
20240418061817 75 80 0.0 2.6 0.00 0.00 0.00 93 1017.1
20240418061715 74 80 0.9 2.6 0.00 0.00 0.00 93 1017.1
20240418061616 75 80 0.9 2.6 0.00 0.00 0.00 93 1017.1
20240418061515 75 75 0.9 2.6 0.00 0.00 0.00 93 1017.1
20240418061416 75 75 0.9 2.6 0.00 0.00 0.00 93 1017.0
20240418061315 74 75 0.9 2.6 0.00 0.00 0.00 93 1017.1
20240418061216 74 73 0.9 2.6 0.00 0.00 0.00 93 1017.0
20240418061118 75 75 0.9 2.6 0.00 0.00 0.00 93 1017.1
20240418061015 74 71 0.9 2.6 0.00 0.00 0.00 93 1017.2
20240418060915 74 71 0.9 2.6 0.00 0.00 0.00 93 1017.3
20240418060815 74 71 0.9 1.7 0.00 0.00 0.00 93 1017.3
20240418060716 74 71 0.9 1.7 0.00 0.00 0.00 93 1017.4
20240418060615 74 71 0.0 1.7 0.00 0.00 0.00 93 1017.4
20240418060515 74 71 0.0 1.7 0.00 0.00 0.00 93 1017.3
20240418060416 74 71 0.0 3.5 0.00 0.00 0.00 93 1017.4
20240418060316 74 71 0.9 3.5 0.00 0.00 0.00 93 1017.3
20240418060215 74 71 0.9 3.5 0.00 0.00 0.00 93 1017.3
20240418060115 74 71 0.0 3.5 0.00 0.00 0.00 93 1017.3
20240418060017 74 71 0.0 3.5 0.00 0.00 0.00 93 1017.3
20240418055915 74 71 0.0 3.5 0.00 0.00 0.00 93 1017.5
20240418055815 74 71 0.0 3.5 0.00 0.00 0.00 93 1017.6
20240418055715 74 71 0.9 3.5 0.00 0.00 0.00 93 1017.6
20240418055615 74 71 0.9 3.5 0.00 0.00 0.00 93 1017.6
20240418055514 74 66 1.7 3.5 0.00 0.00 0.00 93 1017.6
20240418055417 74 102 0.9 1.7 0.00 0.00 0.00 93 1017.6
20240418055316 74 80 0.9 1.7 0.00 0.00 0.00 93 1017.6
20240418055216 74 82 0.9 1.7 0.00 0.00 0.00 93 1017.5
20240418055117 74 82 0.0 1.7 0.00 0.00 0.00 93 1017.6
20240418055016 74 82 0.9 1.7 0.00 0.00 0.00 93 1017.6
20240418054915 74 82 0.9 1.7 0.00 0.00 0.00 93 1017.6
20240418054816 74 82 0.0 1.7 0.00 0.00 0.00 93 1017.6
20240418054715 74 71 0.0 1.7 0.00 0.00 0.00 93 1017.6
20240418054616 74 71 0.0 1.7 0.00 0.00 0.00 93 1017.7
20240418054515 74 71 0.9 1.7 0.00 0.00 0.00 93 1017.6
20240418054414 74 71 0.9 1.7 0.00 0.00 0.00 93 1017.7
20240418054315 74 71 0.0 0.9 0.00 0.00 0.00 93 1017.7
20240418054215 74 71 0.0 0.9 0.00 0.00 0.00 93 1017.7
20240418054114 74 71 0.0 0.9 0.00 0.00 0.00 93 1017.7
20240418054014 74 71 0.9 0.9 0.00 0.00 0.00 93 1017.7
20240418053914 74 66 0.0 0.9 0.00 0.00 0.00 93 1017.7
20240418053815 74 66 0.0 1.7 0.00 0.00 0.00 93 1017.8
20240418053714 74 66 0.0 2.6 0.00 0.00 0.00 93 1017.7
20240418053615 74 66 0.0 2.6 0.00 0.00 0.00 93 1017.7
20240418053515 74 66 0.0 2.6 0.00 0.00 0.00 93 1017.7
20240418053415 74 66 0.0 2.6 0.00 0.00 0.00 93 1017.7
20240418053314 74 66 0.0 2.6 0.00 0.00 0.00 93 1017.8
20240418053216 74 66 0.0 2.6 0.00 0.00 0.00 93 1017.8
20240418053115 74 66 0.0 2.6 0.00 0.00 0.00 93 1017.8
20240418053015 74 66 0.0 2.6 0.00 0.00 0.00 93 1017.8
20240418052915 74 66 0.9 2.6 0.00 0.00 0.00 93 1017.8
20240418052814 74 62 0.9 2.6 0.00 0.00 0.00 93 1017.8
20240418052714 74 124 0.9 2.6 0.00 0.00 0.00 93 1017.9
20240418052615 74 125 0.9 3.5 0.00 0.00 0.00 93 1018.0
20240418052515 74 127 0.9 3.5 0.00 0.00 0.00 93 1017.9
20240418052414 74 162 0.9 3.5 0.00 0.00 0.00 93 1017.9
20240418052314 74 166 0.0 3.5 0.00 0.00 0.00 93 1017.9
20240418052216 74 107 0.0 3.5 0.00 0.00 0.00 93 1017.9
20240418052114 74 107 0.0 3.5 0.00 0.00 0.00 93 1018.0
20240418052014 74 107 0.0 3.5 0.00 0.00 0.00 93 1018.0
20240418051915 74 107 0.0 3.5 0.00 0.00 0.00 93 1018.0
20240418051815 74 109 0.9 3.5 0.00 0.00 0.00 93 1018.1
20240418051714 74 109 0.9 3.5 0.00 0.00 0.00 93 1018.1
20240418051614 74 159 0.0 2.6 0.00 0.00 0.00 93 1018.1
20240418051516 74 178 0.0 1.7 0.00 0.00 0.00 93 1018.1
20240418051414 74 178 0.0 1.7 0.00 0.00 0.00 93 1018.1
20240418051314 74 178 0.0 2.6 0.00 0.00 0.00 93 1018.1
20240418051215 74 178 0.9 3.5 0.00 0.00 0.00 93 1018.2
20240418051115 74 179 0.0 3.5 0.00 0.00 0.00 93 1018.1
20240418051015 74 110 0.0 3.5 0.00 0.00 0.00 93 1018.0
20240418050914 74 110 0.0 3.5 0.00 0.00 0.00 93 1018.0
20240418050815 74 110 0.0 3.5 0.00 0.00 0.00 93 1018.0
20240418050713 74 110 0.0 3.5 0.00 0.00 0.00 93 1017.9
20240418050611 74 111 0.0 3.5 0.00 0.00 0.00 93 1018.0
20240418050511 74 111 0.9 3.5 0.00 0.00 0.00 93 1017.9
20240418050408 74 111 1.7 3.5 0.00 0.00 0.00 93 1017.9
20240418050308 74 147 1.7 3.5 0.00 0.00 0.00 93 1018.0
20240418050205 74 190 0.9 2.6 0.00 0.00 0.00 93 1018.0
20240418050104 74 142 0.9 2.6 0.00 0.00 0.00 93 1018.0
20240418050003 74 142 0.0 2.6 0.00 0.00 0.00 93 1018.1
20240418045903 74 134 0.9 4.3 0.00 0.00 0.00 93 1018.1
20240418045803 74 134 0.9 4.3 0.00 0.00 0.00 93 1018.0
20240418045702 74 99 0.9 4.3 0.00 0.00 0.00 93 1018.0
20240418045602 74 99 0.9 4.3 0.00 0.00 0.00 92 1018.1
20240418045503 74 125 0.9 4.3 0.00 0.00 0.00 92 1018.2
20240418045403 74 123 0.0 4.3 0.00 0.00 0.00 92 1018.2
20240418045302 74 123 0.9 4.3 0.00 0.00 0.00 92 1018.2
20240418045202 74 123 0.9 4.3 0.00 0.00 0.00 92 1018.3
20240418045102 74 123 1.7 4.3 0.00 0.00 0.00 92 1018.2
20240418045005 74 127 0.9 4.3 0.00 0.00 0.00 92 1018.2
20240418044902 74 134 0.9 2.6 0.00 0.00 0.00 92 1018.3
20240418044802 74 134 0.9 2.6 0.00 0.00 0.00 92 1018.2
20240418044703 74 103 0.0 1.7 0.00 0.00 0.00 92 1018.2
20240418044603 74 103 0.0 1.7 0.00 0.00 0.00 92 1018.2
20240418044502 74 103 0.0 2.6 0.00 0.00 0.00 92 1018.3
20240418044402 74 103 0.0 2.6 0.00 0.00 0.00 92 1018.3
20240418044303 74 106 0.0 2.6 0.00 0.00 0.00 92 1018.4
20240418044203 74 106 0.0 2.6 0.00 0.00 0.00 92 1018.4
20240418044104 74 106 0.0 2.6 0.00 0.00 0.00 92 1018.3
20240418044004 74 97 0.0 2.6 0.00 0.00 0.00 92 1018.3
20240418043904 74 97 0.9 2.6 0.00 0.00 0.00 92 1018.3
20240418043802 74 65 0.0 2.6 0.00 0.00 0.00 92 1018.3
20240418043704 74 133 0.9 2.6 0.00 0.00 0.00 92 1018.3
20240418043604 74 133 0.9 2.6 0.00 0.00 0.00 92 1018.3
20240418043502 74 131 0.0 0.9 0.00 0.00 0.00 92 1018.3
20240418043402 74 131 0.0 1.7 0.00 0.00 0.00 92 1018.4
20240418043303 74 131 0.0 1.7 0.00 0.00 0.00 92 1018.3
20240418043203 0 0.0 1.7 0.00 0.00 0.00 1018.3
20240418043103 0 0.0 1.7 0.00 0.00 0.00 1018.2
20240418043003 0 0.0 1.7 0.00 0.00 0.00 1018.2
20240418042904 75 130 0.0 1.7 0.00 0.00 0.00 92 1018.2
20240418042803 75 130 0.0 1.7 0.00 0.00 0.00 92 1018.2
20240418042703 75 130 0.0 1.7 0.00 0.00 0.00 92 1018.2
20240418042604 75 130 0.0 1.7 0.00 0.00 0.00 92 1018.2
20240418042503 75 130 0.0 1.7 0.00 0.00 0.00 92 1018.1
20240418042402 75 130 0.0 1.7 0.00 0.00 0.00 92 1018.2
20240418042303 75 131 0.0 1.7 0.00 0.00 0.00 91 1018.2
20240418042203 75 131 0.0 1.7 0.00 0.00 0.00 91 1018.2
20240418042102 75 131 0.9 1.7 0.00 0.00 0.00 91 1018.2
20240418042002 75 131 0.0 1.7 0.00 0.00 0.00 91 1018.2
20240418041903 75 58 0.0 1.7 0.00 0.00 0.00 91 1018.3
20240418041802 75 58 0.0 1.7 0.00 0.00 0.00 91 1018.3
20240418041701 75 58 0.0 1.7 0.00 0.00 0.00 91 1018.3
20240418041603 75 58 0.0 2.6 0.00 0.00 0.00 91 1018.3
20240418041503 75 58 0.0 2.6 0.00 0.00 0.00 91 1018.3
20240418041404 75 54 0.9 2.6 0.00 0.00 0.00 91 1018.4
20240418041302 75 111 0.9 2.6 0.00 0.00 0.00 91 1018.4
20240418041204 75 111 0.9 2.6 0.00 0.00 0.00 91 1018.4
20240418041103 75 111 0.9 2.6 0.00 0.00 0.00 91 1018.3
20240418041004 75 124 0.9 2.6 0.00 0.00 0.00 91 1018.3
20240418040903 75 124 0.0 2.6 0.00 0.00 0.00 91 1018.3
20240418040801 75 123 0.9 2.6 0.00 0.00 0.00 91 1018.3
20240418040702 75 123 0.9 2.6 0.00 0.00 0.00 91 1018.3
20240418040603 75 123 0.0 1.7 0.00 0.00 0.00 91 1018.3
20240418040503 75 123 0.0 0.9 0.00 0.00 0.00 91 1018.2
20240418040403 75 123 0.0 0.9 0.00 0.00 0.00 91 1018.2
20240418040302 75 123 0.0 0.9 0.00 0.00 0.00 91 1018.2
20240418040202 75 123 0.0 0.9 0.00 0.00 0.00 91 1018.3
20240418040103 75 123 0.0 2.6 0.00 0.00 0.00 91 1018.4
20240418040003 75 123 0.0 2.6 0.00 0.00 0.00 91 1018.4
20240418035904 75 123 0.0 2.6 0.00 0.00 0.00 91 1018.4
20240418035804 75 123 0.0 2.6 0.00 0.00 0.00 91 1018.5
20240418035702 75 123 0.0 2.6 0.00 0.00 0.00 91 1018.5
20240418035605 75 123 0.0 2.6 0.00 0.00 0.00 91 1018.4
20240418035504 75 123 0.0 2.6 0.00 0.00 0.00 91 1018.5
20240418035404 75 123 0.0 2.6 0.00 0.00 0.00 91 1018.4
20240418035303 75 123 0.9 2.6 0.00 0.00 0.00 91 1018.3
20240418035202 75 123 0.9 2.6 0.00 0.00 0.00 91 1018.4
20240418035102 75 182 0.0 1.7 0.00 0.00 0.00 91 1018.5
20240418035004 75 182 0.9 1.7 0.00 0.00 0.00 91 1018.5
20240418034903 75 180 0.9 1.7 0.00 0.00 0.00 91 1018.6
20240418034802 75 149 0.9 1.7 0.00 0.00 0.00 91 1018.5
20240418034702 75 149 0.9 1.7 0.00 0.00 0.00 91 1018.6
20240418034603 75 154 0.0 1.7 0.00 0.00 0.00 91 1018.6
20240418034504 75 157 0.0 0.9 0.00 0.00 0.00 91 1018.6
20240418034404 75 157 0.0 0.9 0.00 0.00 0.00 91 1018.7
20240418034303 75 157 0.0 0.9 0.00 0.00 0.00 91 1018.6
20240418034201 75 157 0.0 2.6 0.00 0.00 0.00 91 1018.6
20240418034104 75 157 0.0 2.6 0.00 0.00 0.00 91 1018.5
20240418034003 75 157 0.0 2.6 0.00 0.00 0.00 91 1018.5
20240418033904 75 157 0.0 2.6 0.00 0.00 0.00 91 1018.5
20240418033802 75 157 0.0 2.6 0.00 0.00 0.00 91 1018.4
20240418033702 75 157 0.0 2.6 0.00 0.00 0.00 91 1018.4
20240418033602 75 157 0.0 2.6 0.00 0.00 0.00 91 1018.5
20240418033504 75 157 0.0 2.6 0.00 0.00 0.00 91 1018.5
20240418033403 75 157 0.9 2.6 0.00 0.00 0.00 91 1018.3
20240418033304 75 157 0.9 2.6 0.00 0.00 0.00 91 1018.3
20240418033203 75 116 0.0 1.7 0.00 0.00 0.00 91 1018.2
20240418033104 75 117 0.9 1.7 0.00 0.00 0.00 91 1018.3
20240418033004 75 117 0.9 1.7 0.00 0.00 0.00 91 1018.4
20240418032903 75 117 0.0 1.7 0.00 0.00 0.00 91 1018.4
20240418032803 75 118 0.0 1.7 0.00 0.00 0.00 91 1018.3
20240418032702 75 118 0.0 1.7 0.00 0.00 0.00 91 1018.3
20240418032602 75 118 0.0 1.7 0.00 0.00 0.00 91 1018.3
20240418032503 75 118 0.0 1.7 0.00 0.00 0.00 91 1018.3
20240418032402 75 118 0.0 1.7 0.00 0.00 0.00 91 1018.3
20240418032303 75 118 0.0 1.7 0.00 0.00 0.00 91 1018.3
20240418032202 75 118 0.0 1.7 0.00 0.00 0.00 91 1018.3
20240418032103 75 118 0.0 1.7 0.00 0.00 0.00 91 1018.2
20240418032002 75 118 0.0 1.7 0.00 0.00 0.00 91 1018.3
20240418031902 75 118 0.0 1.7 0.00 0.00 0.00 91 1018.3
20240418031804 75 118 0.9 1.7 0.00 0.00 0.00 91 1018.2
20240418031703 75 118 0.9 1.7 0.00 0.00 0.00 91 1018.2
20240418031601 75 121 0.9 1.7 0.00 0.00 0.00 91 1018.2
20240418031503 75 123 0.9 1.7 0.00 0.00 0.00 91 1018.3
20240418031404 75 123 0.9 1.7 0.00 0.00 0.00 91 1018.3
20240418031304 75 123 0.9 2.6 0.00 0.00 0.00 91 1018.2
20240418031203 75 134 0.0 2.6 0.00 0.00 0.00 91 1018.2
20240418031104 75 134 0.0 2.6 0.00 0.00 0.00 91 1018.2
20240418031003 75 134 0.0 2.6 0.00 0.00 0.00 91 1018.2
20240418030902 75 134 0.0 2.6 0.00 0.00 0.00 91 1018.1
20240418030803 75 134 0.0 2.6 0.00 0.00 0.00 91 1018.2
20240418030704 75 134 0.9 2.6 0.00 0.00 0.00 91 1018.1
20240418030604 75 134 0.9 2.6 0.00 0.00 0.00 91 1018.1
20240418030501 75 131 1.7 2.6 0.00 0.00 0.00 91 1018.1
20240418030403 75 128 0.9 2.6 0.00 0.00 0.00 91 1018.1
20240418030304 75 147 0.0 1.7 0.00 0.00 0.00 91 1018.1
20240418030203 75 147 0.0 1.7 0.00 0.00 0.00 91 1018.1
20240418030103 75 151 0.0 1.7 0.00 0.00 0.00 91 1018.1
20240418030004 75 151 0.0 1.7 0.00 0.00 0.00 91 1018.1
20240418025902 75 151 0.0 1.7 0.00 0.00 0.00 91 1018.1
20240418025803 75 154 0.0 1.7 0.00 0.00 0.00 90 1018.1
20240418025701 75 154 0.9 1.7 0.00 0.00 0.00 90 1018.1
20240418025602 75 110 0.9 1.7 0.00 0.00 0.00 90 1018.1
20240418025503 75 110 0.9 3.5 0.00 0.00 0.00 90 1018.1
20240418025403 75 110 0.9 3.5 0.00 0.00 0.00 90 1018.0
20240418025303 75 110 0.9 3.5 0.00 0.00 0.00 90 1018.0
20240418025204 75 110 0.9 3.5 0.00 0.00 0.00 90 1018.0
20240418025101 75 111 0.9 3.5 0.00 0.00 0.00 90 1018.0
20240418025004 75 123 0.0 3.5 0.00 0.00 0.00 90 1018.2
20240418024903 75 123 0.0 3.5 0.00 0.00 0.00 90 1018.1
20240418024803 75 123 0.0 3.5 0.00 0.00 0.00 90 1018.0
20240418024703 75 123 1.7 3.5 0.00 0.00 0.00 90 1018.1
20240418024602 75 125 0.9 3.5 0.00 0.00 0.00 90 1018.1
20240418024502 75 66 0.0 2.6 0.00 0.00 0.00 90 1018.0
20240418024404 75 66 0.0 2.6 0.00 0.00 0.00 90 1018.0
20240418024302 75 66 0.9 2.6 0.00 0.00 0.00 90 1018.0
20240418024202 75 66 0.9 2.6 0.00 0.00 0.00 90 1018.0
20240418024101 75 121 0.9 1.7 0.00 0.00 0.00 90 1018.0
20240418024004 75 121 0.0 1.7 0.00 0.00 0.00 90 1018.0
20240418023904 75 121 0.0 1.7 0.00 0.00 0.00 90 1018.1
20240418023802 75 121 0.0 1.7 0.00 0.00 0.00 90 1018.1
20240418023703 75 121 0.9 1.7 0.00 0.00 0.00 90 1018.1
20240418023604 75 121 0.9 1.7 0.00 0.00 0.00 90 1018.1
20240418023503 75 149 0.9 1.7 0.00 0.00 0.00 90 1018.1
20240418023402 75 149 0.9 1.7 0.00 0.00 0.00 90 1018.1
20240418023303 75 92 0.9 1.7 0.00 0.00 0.00 90 1018.1
20240418023203 75 92 0.0 2.6 0.00 0.00 0.00 90 1018.1
20240418023103 75 90 0.0 2.6 0.00 0.00 0.00 90 1018.0
20240418023004 75 114 0.0 2.6 0.00 0.00 0.00 90 1018.0
20240418022903 75 114 0.0 2.6 0.00 0.00 0.00 90 1017.8
20240418022803 75 114 0.0 2.6 0.00 0.00 0.00 90 1017.8
20240418022707 75 114 0.0 2.6 0.00 0.00 0.00 90 1017.8
20240418022602 75 114 0.0 2.6 0.00 0.00 0.00 90 1017.7
20240418022503 75 114 0.9 2.6 0.00 0.00 0.00 90 1017.7
20240418022402 75 114 0.9 2.6 0.00 0.00 0.00 90 1017.7
20240418022304 75 116 0.9 2.6 0.00 0.00 0.00 90 1017.6
20240418022203 75 113 0.0 2.6 0.00 0.00 0.00 90 1017.6
20240418022103 75 68 0.9 2.6 0.00 0.00 0.00 90 1017.6
20240418022003 75 68 0.9 2.6 0.00 0.00 0.00 90 1017.5
20240418021902 75 82 0.9 1.7 0.00 0.00 0.00 90 1017.6
20240418021804 75 80 0.0 1.7 0.00 0.00 0.00 90 1017.5
20240418021702 75 80 0.0 1.7 0.00 0.00 0.00 90 1017.5
20240418021603 75 76 0.0 1.7 0.00 0.00 0.00 90 1017.4
20240418021503 75 76 0.0 1.7 0.00 0.00 0.00 90 1017.5
20240418021403 75 76 0.0 1.7 0.00 0.00 0.00 90 1017.5
20240418021304 75 76 0.0 1.7 0.00 0.00 0.00 90 1017.6
20240418021203 75 75 0.0 0.9 0.00 0.00 0.00 90 1017.5
20240418021103 75 76 0.0 0.9 0.00 0.00 0.00 90 1017.6
20240418021003 75 76 0.0 0.9 0.00 0.00 0.00 90 1017.6
20240418020902 75 76 0.0 1.7 0.00 0.00 0.00 90 1017.6
20240418020804 75 76 0.0 1.7 0.00 0.00 0.00 90 1017.6
20240418020702 75 76 0.0 1.7 0.00 0.00 0.00 90 1017.5
20240418020603 75 76 0.0 1.7 0.00 0.00 0.00 90 1017.5
20240418020501 75 76 0.0 1.7 0.00 0.00 0.00 90 1017.4
20240418020404 75 76 0.0 1.7 0.00 0.00 0.00 90 1017.5
20240418020240 75 76 0.0 1.7 0.00 0.00 0.00 90 1017.4
20240418020131 75 76 0.0 1.7 0.00 0.00 0.00 90 1017.4
20240418020031 75 76 0.9 1.7 0.00 0.00 0.00 90 1017.4
20240418015932 75 76 0.0 1.7 0.00 0.00 0.00 90 1017.4
20240418015832 75 76 0.0 1.7 0.00 0.00 0.00 90 1017.3
20240418015731 75 75 0.0 1.7 0.00 0.00 0.00 90 1017.4
20240418015628 75 75 0.9 1.7 0.00 0.00 0.00 90 1017.3
20240418015528 75 75 0.0 1.7 0.00 0.00 0.00 90 1017.2
20240418015426 75 75 0.9 1.7 0.00 0.00 0.00 90 1017.2
20240418015324 75 75 0.9 1.7 0.00 0.00 0.00 90 1017.2
20240418015223 75 71 0.0 0.9 0.00 0.00 0.00 90 1017.3
20240418015119 75 71 0.0 0.9 0.00 0.00 0.00 90 1017.3
20240418015017 75 71 0.0 0.9 0.00 0.00 0.00 90 1017.3
20240418014916 75 71 0.0 1.7 0.00 0.00 0.00 90 1017.3
20240418014813 75 71 0.0 1.7 0.00 0.00 0.00 90 1017.3
20240418014712 75 71 0.0 1.7 0.00 0.00 0.00 90 1017.2
20240418014611 75 71 0.0 1.7 0.00 0.00 0.00 90 1017.2
20240418014509 75 71 0.0 1.7 0.00 0.00 0.00 90 1017.3
20240418014410 75 71 0.0 1.7 0.00 0.00 0.00 90 1017.3
20240418014308 75 71 0.0 1.7 0.00 0.00 0.00 90 1017.2
20240418014209 75 71 0.0 1.7 0.00 0.00 0.00 90 1017.1
20240418014109 75 71 0.9 1.7 0.00 0.00 0.00 90 1017.1
20240418014008 75 71 0.9 1.7 0.00 0.00 0.00 90 1017.1
20240418013908 75 71 0.9 1.7 0.00 0.00 0.00 90 1017.1
20240418013808 75 71 0.9 1.7 0.00 0.00 0.00 90 1017.1
20240418013708 75 71 0.9 1.7 0.00 0.00 0.00 90 1017.2
20240418013608 75 69 0.9 2.6 0.00 0.00 0.00 90 1017.3
20240418013509 75 69 0.9 2.6 0.00 0.00 0.00 90 1017.2
20240418013409 75 66 0.9 2.6 0.00 0.00 0.00 90 1017.2
20240418013307 75 87 0.0 2.6 0.00 0.00 0.00 90 1017.2
20240418013208 75 87 0.0 2.6 0.00 0.00 0.00 90 1017.2
20240418013108 75 87 0.0 2.6 0.00 0.00 0.00 90 1017.2
20240418013009 75 87 0.0 2.6 0.00 0.00 0.00 90 1017.1
20240418012909 75 87 0.9 2.6 0.00 0.00 0.00 90 1017.1
20240418012808 75 87 0.9 2.6 0.00 0.00 0.00 90 1017.2
20240418012709 75 89 0.9 2.6 0.00 0.00 0.00 90 1017.2
20240418012607 75 87 0.9 2.6 0.00 0.00 0.00 90 1017.2
20240418012508 75 90 0.9 2.6 0.00 0.00 0.00 90 1017.2
20240418012407 75 92 1.7 2.6 0.00 0.00 0.00 90 1017.1
20240418012308 75 93 0.9 2.6 0.00 0.00 0.00 90 1017.1
20240418012208 75 93 0.9 2.6 0.00 0.00 0.00 90 1017.1
20240418012108 75 94 1.7 2.6 0.00 0.00 0.00 90 1017.1
20240418012008 75 92 1.7 2.6 0.00 0.00 0.00 89 1017.0
20240418011907 75 93 1.7 2.6 0.00 0.00 0.00 89 1017.1
20240418011808 75 89 1.7 2.6 0.00 0.00 0.00 89 1017.1
20240418011707 75 90 0.9 2.6 0.00 0.00 0.00 89 1017.1
20240418011609 75 90 0.9 2.6 0.00 0.00 0.00 89 1017.2
20240418011508 75 90 0.9 2.6 0.00 0.00 0.00 89 1017.1
20240418011409 75 86 0.9 2.6 0.00 0.00 0.00 89 1017.1
20240418011308 75 86 0.9 2.6 0.00 0.00 0.00 89 1017.0
20240418011204 75 87 0.9 2.6 0.00 0.00 0.00 89 1016.9
20240418011101 75 89 0.9 2.6 0.00 0.00 0.00 89 1016.9
20240418011002 75 89 0.9 2.6 0.00 0.00 0.00 89 1017.0
20240418010904 75 92 0.9 2.6 0.00 0.00 0.00 89 1016.9
20240418010803 75 92 1.7 2.6 0.00 0.00 0.00 89 1016.9
20240418010704 75 71 1.7 2.6 0.00 0.00 0.00 89 1016.9
20240418010603 75 80 1.7 2.6 0.00 0.00 0.00 89 1016.9
20240418010501 75 69 0.9 2.6 0.00 0.00 0.00 89 1016.9
20240418010403 75 78 0.9 2.6 0.00 0.00 0.00 89 1016.9
20240418010302 75 80 0.9 2.6 0.00 0.00 0.00 89 1016.9
20240418010203 75 94 0.9 2.6 0.00 0.00 0.00 89 1016.8
20240418010103 75 96 0.9 2.6 0.00 0.00 0.00 89 1016.8
20240418010002 75 96 0.9 2.6 0.00 0.00 0.00 89 1016.8
20240418005903 75 65 0.9 2.6 0.00 0.00 0.00 89 1016.7
20240418005804 75 63 0.9 2.6 0.00 0.00 0.00 89 1016.7
20240418005704 75 63 0.9 2.6 0.00 0.00 0.00 89 1016.7
20240418005603 75 100 0.9 2.6 0.00 0.00 0.00 89 1016.6
20240418005504 75 102 0.9 2.6 0.00 0.00 0.00 89 1016.6
20240418005403 75 104 0.9 2.6 0.00 0.00 0.00 89 1016.6
20240418005303 75 72 0.9 2.6 0.00 0.00 0.00 89 1016.6
20240418005202 75 65 0.0 2.6 0.00 0.00 0.00 89 1016.7
20240418005103 75 63 0.0 2.6 0.00 0.00 0.00 89 1016.7
20240418005002 75 63 0.0 2.6 0.00 0.00 0.00 89 1016.6
20240418004903 75 63 0.9 2.6 0.00 0.00 0.00 89 1016.5
20240418004803 75 83 0.9 2.6 0.00 0.00 0.00 89 1016.6
20240418004702 75 162 0.9 2.6 0.00 0.00 0.00 89 1016.5
20240418004603 75 162 0.9 2.6 0.00 0.00 0.00 88 1016.6
20240418004504 75 96 0.9 2.6 0.00 0.00 0.00 88 1016.5
20240418004404 75 110 0.9 3.5 0.00 0.00 0.00 88 1016.5
20240418004303 76 72 0.9 3.5 0.00 0.00 0.00 88 1016.5
20240418004203 76 117 1.7 3.5 0.00 0.00 0.00 88 1016.4
20240418004101 76 99 1.7 3.5 0.00 0.00 0.00 88 1016.3
20240418003957 76 99 0.9 4.3 0.00 0.00 0.00 88 1016.4
20240418003855 76 63 0.9 4.3 0.00 0.00 0.00 88 1016.4
20240418003753 76 63 0.9 4.3 0.00 0.00 0.00 88 1016.4
20240418003653 76 99 1.7 4.3 0.00 0.00 0.00 88 1016.3
20240418003547 76 164 1.7 4.3 0.00 0.00 0.00 88 1016.3
20240418003446 76 116 1.7 4.3 0.00 0.00 0.00 88 1016.3
20240418003346 76 197 1.7 5.2 0.00 0.00 0.00 88 1016.2
20240418003242 76 141 1.7 5.2 0.00 0.00 0.00 88 1016.1
20240418003143 76 94 1.7 5.2 0.00 0.00 0.00 88 1016.0
20240418003041 76 48 1.7 5.2 0.00 0.00 0.00 87 1015.9
20240418002931 76 62 1.7 5.2 0.00 0.00 0.00 87 1016.0
20240418002832 76 73 1.7 5.2 0.00 0.00 0.00 87 1015.9
20240418002733 76 63 1.7 5.2 0.00 0.00 0.00 87 1016.0
20240418002630 76 97 1.7 5.2 0.00 0.00 0.00 87 1016.0
20240418002530 76 52 2.6 5.2 0.00 0.00 0.00 87 1016.1
20240418002429 76 109 2.6 5.2 0.00 0.00 0.00 87 1016.1
20240418002328 76 65 1.7 4.3 0.00 0.00 0.00 87 1016.0
20240418002226 76 59 1.7 4.3 0.00 0.00 0.00 87 1016.1
20240418002120 76 102 1.7 4.3 0.00 0.00 0.00 87 1016.1
20240418002013 76 7 0.9 4.3 0.00 0.00 0.00 87 1016.1
20240418001912 76 58 1.7 4.3 0.00 0.00 0.00 87 1016.1
20240418001810 76 63 1.7 4.3 0.00 0.00 0.00 87 1016.1
20240418001707 76 107 1.7 4.3 0.00 0.00 0.00 87 1016.1
20240418001606 76 80 0.9 4.3 0.00 0.00 0.00 87 1016.1
20240418001505 76 79 1.7 4.3 0.00 0.00 0.00 87 1016.0
20240418001406 76 79 1.7 4.3 0.00 0.00 0.00 87 1016.0
20240418001305 76 114 1.7 5.2 0.00 0.00 0.00 87 1016.1
20240418001205 76 117 1.7 5.2 0.00 0.00 0.00 87 1016.2
20240418001106 76 68 2.6 5.2 0.00 0.00 0.00 87 1016.2
20240418001007 77 65 2.6 5.2 0.00 0.00 0.00 87 1016.3
20240418000906 77 99 0.9 5.2 0.00 0.00 0.00 87 1016.3
20240418000806 77 89 0.9 5.2 0.00 0.00 0.00 87 1016.3
20240418000707 77 114 0.9 5.2 0.00 0.00 0.00 87 1016.3
20240418000605 77 128 1.7 5.2 0.00 0.00 0.00 87 1016.4
20240418000507 77 86 2.6 5.2 0.00 0.00 0.00 87 1016.4
20240418000406 77 76 2.6 5.2 0.00 0.00 0.00 86 1016.4
20240418000306 77 100 2.6 5.2 0.00 0.00 0.00 86 1016.4
20240418000206 77 79 2.6 5.2 0.00 0.00 0.00 86 1016.4
20240418000106 77 120 2.6 5.2 0.00 0.00 0.00 86 1016.6
20240418000005 77 61 2.6 5.2 0.00 0.00 0.00 86 1016.5
20240417235905 77 104 2.6 5.2 0.00 0.00 0.00 86 1016.5
20240417235805 77 86 1.7 4.3 0.00 0.00 0.00 86 1016.5
20240417235705 77 78 0.9 4.3 0.00 0.00 0.00 86 1016.4
20240417235605 77 76 0.9 4.3 0.00 0.00 0.00 86 1016.4
20240417235505 77 76 0.9 4.3 0.00 0.00 0.00 86 1016.4
20240417235405 77 76 1.7 4.3 0.00 0.00 0.00 86 1016.4
20240417235307 77 71 1.7 4.3 0.00 0.00 0.00 86 1016.5
20240417235205 77 87 2.6 4.3 0.00 0.00 0.00 86 1016.4
20240417235105 77 109 1.7 4.3 0.00 0.00 0.00 86 1016.4
20240417235005 77 89 1.7 4.3 0.00 0.00 0.00 86 1016.3
20240417234905 77 87 1.7 3.5 0.00 0.00 0.00 86 1016.3
20240417234807 77 73 1.7 4.3 0.00 0.00 0.00 86 1016.4
20240417234705 77 68 0.9 4.3 0.00 0.00 0.00 86 1016.5
20240417234604 77 73 0.9 4.3 0.00 0.00 0.00 86 1016.5
20240417234505 77 76 0.9 6.1 0.00 0.00 0.00 85 1016.5
20240417234406 77 76 1.7 6.1 0.00 0.00 0.00 85 1016.5
20240417234305 77 76 1.7 6.1 0.00 0.00 0.00 86 1016.4
20240417234205 77 107 1.7 6.1 0.00 0.00 0.00 85 1016.3
20240417234105 77 68 1.7 6.1 0.00 0.00 0.00 85 1016.3
20240417234005 77 78 1.7 6.1 0.00 0.00 0.00 85 1016.2
20240417233904 77 80 2.6 6.1 0.00 0.00 0.00 85 1016.1
20240417233807 77 79 1.7 6.1 0.00 0.00 0.00 85 1016.2
20240417233704 77 76 2.6 6.1 0.00 0.00 0.00 85 1016.1
20240417233605 77 55 3.5 6.1 0.00 0.00 0.00 85 1016.0
20240417233504 77 110 2.6 5.2 0.00 0.00 0.00 85 1015.9
20240417233407 77 69 1.7 5.2 0.00 0.00 0.00 85 1015.8
20240417233305 77 75 2.6 5.2 0.00 0.00 0.00 85 1015.8
20240417233204 78 78 1.7 5.2 0.00 0.00 0.00 85 1015.8
20240417233105 78 65 1.7 5.2 0.00 0.00 0.00 85 1015.8
20240417233005 78 86 2.6 5.2 0.00 0.00 0.00 85 1015.8
20240417232904 78 79 2.6 3.5 0.00 0.00 0.00 85 1015.9
20240417232806 78 85 2.6 3.5 0.00 0.00 0.00 85 1016.0
20240417232705 78 82 2.6 3.5 0.00 0.00 0.00 85 1016.0
20240417232605 78 49 1.7 3.5 0.00 0.00 0.00 85 1016.0
20240417232505 78 79 1.7 3.5 0.00 0.00 0.00 85 1015.9
20240417232405 78 79 1.7 3.5 0.00 0.00 0.00 85 1015.9
20240417232304 78 116 1.7 3.5 0.00 0.00 0.00 85 1015.9
20240417232204 78 79 1.7 3.5 0.00 0.00 0.00 84 1015.9
20240417232104 78 113 1.7 3.5 0.00 0.00 0.00 84 1015.9
20240417232004 78 86 0.9 3.5 0.00 0.00 0.00 85 1015.9
20240417231904 78 68 0.9 3.5 0.00 0.00 0.00 84 1015.9
20240417231805 78 68 0.9 3.5 0.00 0.00 0.00 84 1015.9
20240417231705 78 68 0.9 3.5 0.00 0.00 0.00 84 1016.0
20240417231604 78 68 1.7 3.5 0.00 0.00 0.00 84 1015.9
20240417231504 78 107 1.7 4.3 0.00 0.00 0.00 84 1016.0
20240417231404 78 83 1.7 4.3 0.00 0.00 0.00 84 1016.0
20240417231306 78 106 1.7 4.3 0.00 0.00 0.00 85 1016.0
20240417231204 78 86 1.7 4.3 0.00 0.00 0.00 84 1016.0
20240417231104 78 89 1.7 4.3 0.00 0.00 0.00 84 1016.0
20240417231004 78 73 0.9 5.2 0.00 0.00 0.00 84 1016.0
20240417230904 78 66 2.6 5.2 0.00 0.00 0.00 84 1016.2
20240417230804 78 66 2.6 5.2 0.00 0.00 0.00 84 1016.1
20240417230704 78 73 2.6 5.2 0.00 0.00 0.00 84 1016.1
20240417230604 78 92 1.7 5.2 0.00 0.00 0.00 84 1016.1
20240417230504 78 83 1.7 5.2 0.00 0.00 0.00 84 1016.3
20240417230403 78 109 0.9 5.2 0.00 0.00 0.00 84 1016.3
20240417230306 78 79 1.7 5.2 0.00 0.00 0.00 84 1016.3
20240417230204 78 75 1.7 5.2 0.00 0.00 0.00 84 1016.2
20240417230103 78 69 3.5 5.2 0.00 0.00 0.00 84 1016.1
20240417230003 78 104 2.6 5.2 0.00 0.00 0.00 84 1016.1
20240417225906 78 59 1.7 5.2 0.00 0.00 0.00 83 1016.0
20240417225803 78 61 2.6 5.2 0.00 0.00 0.00 83 1016.1
20240417225704 78 44 3.5 5.2 0.00 0.00 0.00 83 1016.1
20240417225604 78 102 3.5 5.2 0.00 0.00 0.00 83 1016.1
20240417225503 78 116 1.7 5.2 0.00 0.00 0.00 83 1016.2
20240417225404 78 65 2.6 5.2 0.00 0.00 0.00 83 1016.2
20240417225303 78 65 3.5 5.2 0.00 0.00 0.00 83 1016.2
20240417225203 78 100 3.5 5.2 0.00 0.00 0.00 83 1016.2
20240417225103 78 102 3.5 5.2 0.00 0.00 0.00 83 1016.3
20240417225005 78 65 2.6 4.3 0.00 0.00 0.00 83 1016.2
20240417224905 78 71 2.6 4.3 0.00 0.00 0.00 83 1016.3
20240417224803 78 75 2.6 6.1 0.00 0.00 0.00 82 1016.3
20240417224703 78 106 2.6 6.1 0.00 0.00 0.00 82 1016.3
20240417224604 78 52 2.6 6.1 0.00 0.00 0.00 82 1016.2
20240417224503 78 89 2.6 6.1 0.00 0.00 0.00 82 1016.2
20240417224403 78 86 1.7 6.1 0.00 0.00 0.00 82 1016.2
20240417224303 78 110 1.7 6.1 0.00 0.00 0.00 82 1016.2
20240417224204 78 80 2.6 6.1 0.00 0.00 0.00 82 1016.1
20240417224104 78 94 3.5 6.1 0.00 0.00 0.00 82 1016.0
20240417224004 78 73 2.6 6.1 0.00 0.00 0.00 82 1016.1
20240417223903 78 90 3.5 6.1 0.00 0.00 0.00 82 1016.0
20240417223803 78 69 2.6 5.2 0.00 0.00 0.00 82 1016.1
20240417223704 78 73 2.6 4.3 0.00 0.00 0.00 82 1016.1
20240417223603 78 90 1.7 4.3 0.00 0.00 0.00 82 1016.1
20240417223504 78 89 1.7 4.3 0.00 0.00 0.00 82 1016.1
20240417223404 78 76 1.7 4.3 0.00 0.00 0.00 82 1016.2
20240417223303 79 99 2.6 4.3 0.00 0.00 0.00 82 1016.2
20240417223204 79 78 2.6 4.3 0.00 0.00 0.00 82 1016.2
20240417223105 79 85 2.6 4.3 0.00 0.00 0.00 82 1016.2
20240417223003 79 82 2.6 4.3 0.00 0.00 0.00 82 1016.2
20240417222903 79 106 2.6 4.3 0.00 0.00 0.00 81 1016.2
20240417222804 79 75 1.7 4.3 0.00 0.00 0.00 81 1016.3
20240417222703 79 104 2.6 4.3 0.00 0.00 0.00 81 1016.4
20240417222603 79 76 2.6 4.3 0.00 0.00 0.00 81 1016.4
20240417222504 79 76 1.7 4.3 0.00 0.00 0.00 81 1016.4
20240417222403 79 103 1.7 4.3 0.00 0.00 0.00 81 1016.4
20240417222303 79 73 1.7 4.3 0.00 0.00 0.00 81 1016.4
20240417222203 79 71 1.7 4.3 0.00 0.00 0.00 80 1016.4
20240417222103 79 121 2.6 4.3 0.00 0.00 0.00 80 1016.5
20240417222003 79 106 1.7 4.3 0.00 0.00 0.00 80 1016.5
20240417221903 79 106 1.7 3.5 0.00 0.00 0.00 80 1016.3
20240417221803 79 80 1.7 3.5 0.00 0.00 0.00 79 1016.3
20240417221702 79 87 1.7 3.5 0.00 0.00 0.00 79 1016.4
20240417221602 79 72 1.7 2.6 0.00 0.00 0.00 78 1016.4
20240417221504 80 118 1.7 2.6 0.00 0.00 0.00 78 1016.5
20240417221404 80 118 1.7 2.6 0.00 0.00 0.00 78 1016.5
20240417221232 80 76 1.7 2.6 0.00 0.00 0.00 78 1016.5
20240417221132 80 87 0.9 3.5 0.00 0.00 0.00 77 1016.5
20240417221033 80 78 0.9 3.5 0.00 0.00 0.00 78 1016.5
20240417220932 80 78 0.9 3.5 0.00 0.00 0.00 78 1016.6
20240417220832 80 71 0.9 3.5 0.00 0.00 0.00 79 1016.6
20240417220732 80 71 0.9 3.5 0.00 0.00 0.00 79 1016.6
20240417220633 80 71 0.9 3.5 0.00 0.00 0.00 79 1016.6
20240417220531 80 71 0.9 3.5 0.00 0.00 0.00 79 1016.6
20240417220433 80 72 0.9 3.5 0.00 0.00 0.00 78 1016.6
20240417220331 80 85 1.7 3.5 0.00 0.00 0.00 78 1016.6
20240417220232 80 120 1.7 3.5 0.00 0.00 0.00 77 1016.5
20240417220131 80 111 2.6 3.5 0.00 0.00 0.00 77 1016.5
20240417220031 80 107 2.6 3.5 0.00 0.00 0.00 77 1016.5
20240417215933 80 49 2.6 3.5 0.00 0.00 0.00 77 1016.5
20240417215831 80 94 2.6 3.5 0.00 0.00 0.00 77 1016.5
20240417215730 80 66 2.6 3.5 0.00 0.00 0.00 77 1016.5
20240417215632 80 97 2.6 3.5 0.00 0.00 0.00 79 1016.4
20240417215531 80 82 2.6 3.5 0.00 0.00 0.00 78 1016.5
20240417215433 80 73 1.7 3.5 0.00 0.00 0.00 78 1016.5
20240417215332 80 59 0.9 4.3 0.00 0.00 0.00 79 1016.6
20240417215232 80 124 0.9 4.3 0.00 0.00 0.00 80 1016.6
20240417215130 80 124 1.7 4.3 0.00 0.00 0.00 78 1016.5
20240417215031 80 123 0.9 4.3 0.00 0.00 0.00 79 1016.6
20240417214932 80 104 0.9 5.2 0.00 0.00 0.00 79 1016.6
20240417214821 80 104 1.7 5.2 0.00 0.00 0.00 79 1016.7
20240417214720 80 83 1.7 5.2 0.00 0.00 0.00 79 1016.7
20240417214618 80 71 1.7 5.2 0.00 0.00 0.00 78 1016.7
20240417214517 80 71 1.7 5.2 0.00 0.00 0.00 78 1016.8
20240417214415 80 86 2.6 5.2 0.00 0.00 0.00 78 1016.8
20240417214312 80 94 2.6 5.2 0.00 0.00 0.00 78 1016.8
20240417214211 80 65 3.5 5.2 0.00 0.00 0.00 78 1016.9
20240417214110 80 56 3.5 5.2 0.00 0.00 0.00 78 1016.8
20240417214003 80 73 2.6 4.3 0.00 0.00 0.00 77 1016.8
20240417213903 80 68 2.6 4.3 0.00 0.00 0.00 77 1016.9
20240417213803 81 69 1.7 4.3 0.00 0.00 0.00 77 1016.9
20240417213703 81 65 2.6 4.3 0.00 0.00 0.00 78 1017.0
20240417213602 81 68 2.6 4.3 0.00 0.00 0.00 78 1017.0
20240417213504 81 92 1.7 3.5 0.00 0.00 0.00 78 1017.0
20240417213403 81 75 1.7 3.5 0.00 0.00 0.00 78 1017.0
20240417213303 80 99 1.7 4.3 0.00 0.00 0.00 78 1017.0
20240417213202 80 73 1.7 4.3 0.00 0.00 0.00 79 1016.9
20240417213102 80 68 0.9 4.3 0.00 0.00 0.00 80 1017.0
20240417213002 80 78 1.7 4.3 0.00 0.00 0.00 80 1017.0
20240417212903 80 80 1.7 4.3 0.00 0.00 0.00 82 1017.0
20240417212802 80 59 0.9 4.3 0.00 0.00 0.00 82 1016.9
20240417212704 80 75 0.0 5.2 0.00 0.00 0.00 81 1017.0
20240417212601 79 75 0.9 5.2 0.00 0.00 0.00 82 1017.0
20240417212502 79 75 1.7 5.2 0.00 0.00 0.00 81 1017.0
20240417212403 79 124 1.7 5.2 0.00 0.00 0.00 81 1017.1
20240417212302 79 72 2.6 5.2 0.00 0.00 0.00 80 1017.1
20240417212203 80 92 2.6 5.2 0.00 0.00 0.00 80 1017.1
20240417212103 80 87 2.6 5.2 0.00 0.00 0.00 80 1017.0
20240417212002 80 72 2.6 5.2 0.00 0.00 0.00 80 1017.0
20240417211903 80 103 2.6 5.2 0.00 0.00 0.00 79 1017.1
20240417211803 80 82 2.6 5.2 0.00 0.00 0.00 79 1017.1
20240417211702 80 71 2.6 5.2 0.00 0.00 0.00 79 1017.2
20240417211603 81 85 1.7 5.2 0.00 0.00 0.00 79 1017.1
20240417211502 81 102 1.7 5.2 0.00 0.00 0.00 80 1017.2
20240417211403 81 69 1.7 5.2 0.00 0.00 0.00 79 1017.2
20240417211302 81 72 1.7 5.2 0.00 0.00 0.00 78 1017.1
20240417211203 81 72 2.6 5.2 0.00 0.00 0.00 78 1017.3
20240417211102 81 87 1.7 5.2 0.00 0.00 0.00 78 1017.2
20240417211005 81 120 1.7 5.2 0.00 0.00 0.00 78 1017.3
20240417210903 81 106 1.7 5.2 0.00 0.00 0.00 77 1017.3
20240417210802 81 73 1.7 5.2 0.00 0.00 0.00 77 1017.3
20240417210702 81 102 1.7 5.2 0.00 0.00 0.00 77 1017.2
20240417210602 81 83 1.7 5.2 0.00 0.00 0.00 77 1017.2
20240417210503 81 78 2.6 5.2 0.00 0.00 0.00 76 1017.3
20240417210404 81 63 2.6 5.2 0.00 0.00 0.00 76 1017.3
20240417210303 81 134 2.6 4.3 0.00 0.00 0.00 78 1017.3
20240417210203 80 61 2.6 4.3 0.00 0.00 0.00 78 1017.3
20240417210102 80 135 2.6 4.3 0.00 0.00 0.00 78 1017.4
20240417210002 80 48 1.7 4.3 0.00 0.00 0.00 78 1017.4
20240417205903 80 100 0.9 3.5 0.00 0.00 0.00 78 1017.5
20240417205802 80 178 0.9 3.5 0.00 0.00 0.00 78 1017.6
20240417205703 80 203 1.7 3.5 0.00 0.00 0.00 78 1017.6
20240417205602 80 204 1.7 3.5 0.00 0.00 0.00 78 1017.6
20240417205504 80 89 0.9 3.5 0.00 0.00 0.00 78 1017.7
20240417205403 80 86 0.9 3.5 0.00 0.00 0.00 78 1017.6
20240417205302 80 79 0.9 3.5 0.00 0.00 0.00 79 1017.5
20240417205202 80 42 1.7 3.5 0.00 0.00 0.00 78 1017.6
20240417205103 80 193 1.7 3.5 0.00 0.00 0.00 78 1017.6
20240417205003 80 131 0.9 3.5 0.00 0.00 0.00 79 1017.7
20240417204903 80 155 0.0 3.5 0.00 0.00 0.00 79 1017.6
20240417204802 80 155 0.9 3.5 0.00 0.00 0.00 79 1017.6
20240417204702 80 155 0.9 3.5 0.00 0.00 0.00 79 1017.6
20240417204602 80 162 1.7 3.5 0.00 0.00 0.00 78 1017.7
20240417204503 80 121 1.7 3.5 0.00 0.00 0.00 79 1017.6
20240417204402 80 182 0.0 3.5 0.00 0.00 0.00 79 1017.6
20240417204303 80 203 0.0 3.5 0.00 0.00 0.00 78 1017.6
20240417204202 80 203 0.9 3.5 0.00 0.00 0.00 77 1017.7
20240417204102 80 212 0.9 3.5 0.00 0.00 0.00 77 1017.7
20240417204002 80 212 0.9 3.5 0.00 0.00 0.00 77 1017.7
20240417203903 81 255 0.9 3.5 0.00 0.00 0.00 77 1017.7
20240417203803 81 121 0.9 4.3 0.00 0.00 0.00 77 1017.7
20240417203702 81 116 0.0 4.3 0.00 0.00 0.00 77 1017.7
20240417203601 80 114 0.9 4.3 0.00 0.00 0.00 77 1017.6
20240417203503 81 114 1.7 4.3 0.00 0.00 0.00 77 1017.5
20240417203403 81 120 1.7 4.3 0.00 0.00 0.00 77 1017.5
20240417203302 81 97 1.7 4.3 0.00 0.00 0.00 76 1017.4
20240417203202 80 102 1.7 4.3 0.00 0.00 0.00 76 1017.3
20240417203101 80 92 1.7 5.2 0.00 0.00 0.00 76 1017.4
20240417203004 81 69 1.7 5.2 0.00 0.00 0.00 76 1017.4
20240417202901 81 97 1.7 5.2 0.00 0.00 0.00 76 1017.4
20240417202803 81 221 1.7 5.2 0.00 0.00 0.00 77 1017.5
20240417202702 81 182 1.7 5.2 0.00 0.00 0.00 76 1017.5
20240417202602 81 148 1.7 5.2 0.00 0.00 0.00 76 1017.5
20240417202502 81 347 1.7 5.2 0.00 0.00 0.00 76 1017.5
20240417202402 81 176 1.7 5.2 0.00 0.00 0.00 76 1017.5
20240417202301 81 79 2.6 5.2 0.00 0.00 0.00 75 1017.4
20240417202202 81 63 2.6 5.2 0.00 0.00 0.00 75 1017.4
20240417202104 81 128 2.6 5.2 0.00 0.00 0.00 75 1017.3
20240417202003 81 116 3.5 5.2 0.00 0.00 0.00 75 1017.4
20240417201901 81 118 2.6 5.2 0.00 0.00 0.00 76 1017.4
20240417201801 81 73 2.6 5.2 0.00 0.00 0.00 75 1017.4
20240417201703 81 94 1.7 5.2 0.00 0.00 0.00 75 1017.5
20240417201603 81 110 1.7 5.2 0.00 0.00 0.00 75 1017.5
20240417201503 81 0 1.7 5.2 0.00 0.00 0.00 75 1017.6
20240417201402 81 13 2.6 5.2 0.00 0.00 0.00 75 1017.6
20240417201302 81 69 2.6 5.2 0.00 0.00 0.00 75 1017.6
20240417201203 81 106 3.5 5.2 0.00 0.00 0.00 75 1017.5
20240417201102 81 76 2.6 5.2 0.00 0.00 0.00 75 1017.4
20240417201003 82 73 1.7 6.1 0.00 0.00 0.00 75 1017.5
20240417200903 82 78 0.9 6.1 0.00 0.00 0.00 75 1017.5
20240417200802 82 65 1.7 6.1 0.00 0.00 0.00 75 1017.6
20240417200703 82 65 1.7 6.1 0.00 0.00 0.00 75 1017.7
20240417200602 82 68 0.9 6.1 0.00 0.00 0.00 76 1017.7
20240417200503 81 171 0.9 6.1 0.00 0.00 0.00 75 1017.7
20240417200402 81 65 3.5 6.1 0.00 0.00 0.00 75 1017.7
20240417200302 81 65 3.5 6.1 0.00 0.00 0.00 75 1017.7
20240417200201 81 63 2.6 6.1 0.00 0.00 0.00 75 1017.7
20240417200102 81 110 1.7 6.1 0.00 0.00 0.00 75 1017.7
20240417200004 82 68 0.9 4.3 0.00 0.00 0.00 76 1017.8
20240417195902 82 186 0.9 4.3 0.00 0.00 0.00 75 1017.7
20240417195802 82 234 0.9 4.3 0.00 0.00 0.00 75 1017.8
20240417195703 82 233 1.7 4.3 0.00 0.00 0.00 74 1017.8
20240417195602 82 148 1.7 5.2 0.00 0.00 0.00 74 1017.8
20240417195501 82 99 0.9 5.2 0.00 0.00 0.00 75 1017.7
20240417195402 82 51 0.9 5.2 0.00 0.00 0.00 75 1017.8
20240417195302 82 45 0.9 5.2 0.00 0.00 0.00 75 1017.9
20240417195201 82 80 0.9 5.2 0.00 0.00 0.00 76 1017.9
20240417195102 82 78 1.7 5.2 0.00 0.00 0.00 74 1017.9
20240417195003 82 175 1.7 5.2 0.00 0.00 0.00 74 1017.9
20240417194902 82 82 1.7 5.2 0.00 0.00 0.00 74 1017.9
20240417194803 82 97 1.7 5.2 0.00 0.00 0.00 75 1017.9
20240417194702 82 76 2.6 5.2 0.00 0.00 0.00 76 1018.1
20240417194602 82 114 1.7 4.3 0.00 0.00 0.00 76 1018.1
20240417194504 82 66 1.7 4.3 0.00 0.00 0.00 75 1018.1
20240417194403 81 69 1.7 4.3 0.00 0.00 0.00 75 1018.1
20240417194302 81 72 1.7 4.3 0.00 0.00 0.00 75 1018.1
20240417194203 81 113 1.7 4.3 0.00 0.00 0.00 76 1018.1
20240417194102 81 121 1.7 4.3 0.00 0.00 0.00 75 1018.1
20240417194002 81 103 1.7 4.3 0.00 0.00 0.00 75 1018.2
20240417193902 81 103 1.7 4.3 0.00 0.00 0.00 75 1018.1
20240417193802 81 103 1.7 4.3 0.00 0.00 0.00 75 1018.1
20240417193703 82 127 1.7 4.3 0.00 0.00 0.00 75 1018.1
20240417193602 82 145 1.7 4.3 0.00 0.00 0.00 74 1018.1
20240417193502 82 151 1.7 4.3 0.00 0.00 0.00 75 1018.2
20240417193401 81 83 1.7 4.3 0.00 0.00 0.00 74 1018.3
20240417193302 82 54 2.6 4.3 0.00 0.00 0.00 75 1018.1
20240417193202 82 62 2.6 4.3 0.00 0.00 0.00 74 1018.2
20240417193104 82 141 1.7 5.2 0.00 0.00 0.00 74 1018.2
20240417193003 82 24 1.7 5.2 0.00 0.00 0.00 75 1018.2
20240417192902 82 58 1.7 5.2 0.00 0.00 0.00 76 1018.2
20240417192802 82 96 0.9 5.2 0.00 0.00 0.00 76 1018.3
20240417192702 82 66 0.9 5.2 0.00 0.00 0.00 77 1018.2
20240417192603 82 149 0.9 5.2 0.00 0.00 0.00 76 1018.3
20240417192502 82 0 1.7 5.2 0.00 0.00 0.00 76 1018.2
20240417192403 81 63 1.7 5.2 0.00 0.00 0.00 76 1018.2
20240417192303 81 49 2.6 5.2 0.00 0.00 0.00 76 1018.3
20240417192202 81 144 1.7 5.2 0.00 0.00 0.00 75 1018.3
20240417192102 81 137 1.7 2.6 0.00 0.00 0.00 75 1018.3
20240417192004 82 149 1.7 2.6 0.00 0.00 0.00 75 1018.2
20240417191902 81 78 1.7 2.6 0.00 0.00 0.00 76 1018.2
20240417191801 81 78 1.7 2.6 0.00 0.00 0.00 76 1018.2
20240417191703 81 78 1.7 4.3 0.00 0.00 0.00 76 1018.2
20240417191602 81 78 1.7 4.3 0.00 0.00 0.00 76 1018.2
20240417191503 81 78 1.7 6.1 0.00 0.00 0.00 76 1018.2
20240417191401 81 72 1.7 6.1 0.00 0.00 0.00 76 1018.1
20240417191302 81 93 1.7 6.1 0.00 0.00 0.00 76 1018.2
20240417191202 82 59 1.7 6.1 0.00 0.00 0.00 75 1018.2
20240417191103 82 69 1.7 6.1 0.00 0.00 0.00 76 1018.1
20240417191004 81 34 1.7 6.1 0.00 0.00 0.00 76 1018.1
20240417190901 82 27 2.6 6.1 0.00 0.00 0.00 75 1018.1
20240417190802 82 82 1.7 6.1 0.00 0.00 0.00 76 1018.0
20240417190703 82 68 2.6 6.1 0.00 0.00 0.00 74 1018.0
20240417190603 82 92 2.6 6.1 0.00 0.00 0.00 74 1017.9
20240417190503 82 51 2.6 6.1 0.00 0.00 0.00 75 1018.0
20240417190402 82 62 1.7 5.2 0.00 0.00 0.00 75 1018.0
20240417190303 82 110 1.7 5.2 0.00 0.00 0.00 75 1018.0
20240417190203 82 71 2.6 5.2 0.00 0.00 0.00 75 1018.0
20240417190101 82 72 2.6 5.2 0.00 0.00 0.00 73 1018.1
20240417190003 82 86 2.6 5.2 0.00 0.00 0.00 73 1018.0
20240417185903 82 59 2.6 6.1 0.00 0.00 0.00 74 1018.1
20240417185802 82 65 2.6 6.1 0.00 0.00 0.00 75 1018.0
20240417185701 82 78 2.6 6.1 0.00 0.00 0.00 75 1018.0
20240417185602 82 354 1.7 6.1 0.00 0.00 0.00 76 1018.1
20240417185503 82 4 1.7 6.1 0.00 0.00 0.00 76 1018.0
20240417185402 82 72 1.7 6.1 0.00 0.00 0.00 76 1018.1
20240417185302 82 107 1.7 6.1 0.00 0.00 0.00 74 1018.1
20240417185203 81 72 2.6 6.1 0.00 0.00 0.00 76 1018.0
20240417185102 81 109 2.6 6.1 0.00 0.00 0.00 75 1018.0
20240417185002 81 109 2.6 6.1 0.00 0.00 0.00 75 1018.0
20240417184902 81 61 3.5 7.8 0.00 0.00 0.00 75 1018.0
20240417184802 81 103 2.6 7.8 0.00 0.00 0.00 75 1018.2
20240417184702 81 89 2.6 7.8 0.00 0.00 0.00 75 1018.1
20240417184604 81 87 2.6 7.8 0.00 0.00 0.00 75 1018.1
20240417184504 81 48 2.6 7.8 0.00 0.00 0.00 75 1018.1
20240417184403 81 56 2.6 7.8 0.00 0.00 0.00 75 1018.1
20240417184304 81 76 2.6 7.8 0.00 0.00 0.00 75 1018.2
20240417184202 81 61 3.5 7.8 0.00 0.00 0.00 74 1018.1
20240417184102 82 65 3.5 7.8 0.00 0.00 0.00 74 1018.2
20240417184004 82 134 2.6 7.8 0.00 0.00 0.00 75 1018.2
20240417183902 82 30 1.7 6.1 0.00 0.00 0.00 75 1018.1
20240417183802 82 212 2.6 6.1 0.00 0.00 0.00 74 1018.2
20240417183702 82 69 2.6 6.1 0.00 0.00 0.00 75 1018.1
20240417183602 82 58 2.6 6.1 0.00 0.00 0.00 75 1018.1
20240417183504 82 85 2.6 6.1 0.00 0.00 0.00 75 1018.1
20240417183402 82 69 2.6 6.1 0.00 0.00 0.00 75 1018.2
20240417183303 82 63 3.5 6.1 0.00 0.00 0.00 76 1018.1
20240417183201 82 89 2.6 6.1 0.00 0.00 0.00 76 1018.1
20240417183102 82 72 3.5 6.1 0.00 0.00 0.00 76 1018.2
20240417183002 82 73 3.5 6.1 0.00 0.00 0.00 76 1018.2
20240417182902 81 55 2.6 6.1 0.00 0.00 0.00 76 1018.2
20240417182802 81 45 1.7 5.2 0.00 0.00 0.00 76 1018.3
20240417182703 81 89 2.6 5.2 0.00 0.00 0.00 76 1018.4
20240417182603 82 124 2.6 5.2 0.00 0.00 0.00 76 1018.5
20240417182501 82 89 0.9 1.7 0.00 0.00 0.00 76 1018.4
20240417182402 0 0.0 0.0 0.00 0.00 0.00 1018.5
20240417182302 0 0.0 3.5 0.00 0.00 0.00 1018.4
20240417182202 0 0.0 3.5 0.00 0.00 0.00 1018.4
20240417182103 0 0.0 3.5 0.00 0.00 0.00 1018.4
20240417182004 0 0.0 3.5 0.00 0.00 0.00 1018.4
20240417181903 0 0.0 3.5 0.00 0.00 0.00 1018.4
20240417181804 81 63 2.6 3.5 0.00 0.00 0.00 78 1018.5
20240417181703 81 63 2.6 4.3 0.00 0.00 0.00 78 1018.4
20240417181604 81 63 2.6 4.3 0.00 0.00 0.00 78 1018.4
20240417181502 81 63 2.6 4.3 0.00 0.00 0.00 78 1018.5
20240417181403 81 63 2.6 5.2 0.00 0.00 0.00 78 1018.4
20240417181301 81 135 1.7 5.2 0.00 0.00 0.00 78 1018.3
20240417181202 81 121 1.7 5.2 0.00 0.00 0.00 78 1018.4
20240417181105 81 155 0.9 5.2 0.00 0.00 0.00 79 1018.3
20240417181004 81 56 1.7 5.2 0.00 0.00 0.00 78 1018.4
20240417180903 81 63 1.7 5.2 0.00 0.00 0.00 78 1018.3
20240417180805 81 125 2.6 5.2 0.00 0.00 0.00 78 1018.3
20240417180704 81 59 2.6 5.2 0.00 0.00 0.00 77 1018.3
20240417180601 81 93 3.5 5.2 0.00 0.00 0.00 77 1018.3
20240417180504 81 142 2.6 5.2 0.00 0.00 0.00 78 1018.2
20240417180402 81 114 2.6 5.2 0.00 0.00 0.00 77 1018.2
20240417180303 82 97 3.5 5.2 0.00 0.00 0.00 77 1018.0
20240417180200 82 55 2.6 5.2 0.00 0.00 0.00 78 1018.0
20240417180058 82 54 2.6 4.3 0.00 0.00 0.00 78 1018.0
20240417175957 81 55 2.6 4.3 0.00 0.00 0.00 78 1018.0
20240417175856 81 63 2.6 4.3 0.00 0.00 0.00 77 1018.1
20240417175756 82 66 1.7 4.3 0.00 0.00 0.00 78 1018.1
20240417175657 82 49 1.7 4.3 0.00 0.00 0.00 78 1018.2
20240417175555 81 89 1.7 4.3 0.00 0.00 0.00 78 1018.2
20240417175456 81 59 2.6 4.3 0.00 0.00 0.00 78 1018.3
20240417175357 81 104 1.7 4.3 0.00 0.00 0.00 78 1018.3
20240417175257 81 97 0.9 4.3 0.00 0.00 0.00 77 1018.3
20240417175156 81 162 2.6 4.3 0.00 0.00 0.00 79 1018.4
20240417175057 81 162 2.6 4.3 0.00 0.00 0.00 79 1018.4
20240417174956 81 162 2.6 4.3 0.00 0.00 0.00 79 1018.4
20240417174857 81 162 2.6 4.3 0.00 0.00 0.00 79 1018.5
20240417174755 81 145 2.6 6.1 0.00 0.00 0.00 79 1018.5
20240417174655 81 82 1.7 6.1 0.00 0.00 0.00 79 1018.5
20240417174556 81 69 1.7 6.1 0.00 0.00 0.00 80 1018.4
20240417174456 81 68 1.7 6.1 0.00 0.00 0.00 80 1018.5
20240417174354 80 82 1.7 6.1 0.00 0.00 0.00 80 1018.5
20240417174255 80 116 1.7 6.1 0.00 0.00 0.00 79 1018.5
20240417174157 80 100 0.9 6.1 0.00 0.00 0.00 80 1018.5
20240417174058 80 85 1.7 6.1 0.00 0.00 0.00 80 1018.5
20240417173956 80 144 2.6 6.1 0.00 0.00 0.00 80 1018.5
20240417173857 80 185 1.7 6.1 0.00 0.00 0.00 80 1018.6
20240417173755 80 52 1.7 4.3 0.00 0.00 0.00 80 1018.5
20240417173656 80 54 1.7 4.3 0.00 0.00 0.00 80 1018.5
20240417173555 80 135 1.7 4.3 0.00 0.00 0.00 80 1018.6
20240417173457 80 154 1.7 4.3 0.00 0.00 0.00 80 1018.5
20240417173355 80 0 0.9 4.3 0.00 0.00 0.00 80 1018.5
20240417173254 80 61 1.7 4.3 0.00 0.00 0.00 80 1018.5
20240417173156 80 52 1.7 4.3 0.00 0.00 0.00 80 1018.5
20240417173056 80 3 1.7 6.1 0.00 0.00 0.00 81 1018.5
20240417172957 80 63 0.9 6.1 0.00 0.00 0.00 80 1018.6
20240417172856 80 85 1.7 6.1 0.00 0.00 0.00 80 1018.5
20240417172755 79 109 1.7 6.1 0.00 0.00 0.00 80 1018.5
20240417172655 79 0 1.7 6.1 0.00 0.00 0.00 80 1018.5
20240417172555 79 63 0.9 6.1 0.00 0.00 0.00 81 1018.5
20240417172457 79 82 0.9 6.1 0.00 0.00 0.00 80 1018.5
20240417172356 79 82 0.9 6.1 0.00 0.00 0.00 81 1018.6
20240417172254 79 82 1.7 6.1 0.00 0.00 0.00 81 1018.7
20240417172154 79 131 2.6 6.1 0.00 0.00 0.00 81 1018.6
20240417172055 79 38 2.6 6.1 0.00 0.00 0.00 81 1018.6
20240417171955 79 73 2.6 6.1 0.00 0.00 0.00 80 1018.6
20240417171855 79 52 3.5 6.1 0.00 0.00 0.00 81 1018.6
20240417171756 79 152 3.5 6.1 0.00 0.00 0.00 81 1018.7
20240417171655 79 227 1.7 5.2 0.00 0.00 0.00 81 1018.7
20240417171555 79 0 0.9 5.2 0.00 0.00 0.00 81 1018.6
20240417171455 79 130 0.9 5.2 0.00 0.00 0.00 81 1018.6